[{"header": {"dx": 0.06612293990616946, "dy": 0.0552356325346848, "nx": 98, "ny": 59, "la1": 35.046912555036876, "la2": 31.78801023549047, "lo1": -121.43107172385933, "lo2": -114.95102361305473, "refTime": "2026041203", "parameterCategory": 1, "parameterNumber": 2}, "data": [6.94, 6.51, 6.6, 6.16, 6.16, 5.7, 5.78, 5.34, 5.36, 5.36, 4.92, 3.98, 3.6, 3.6, 3.9, 3.95, 4.92, 4.92, 5.36, 5.7, 6.14, 6.61, 6.51, 6.51, 6.16, 5.46, 5.82, 6.08, 6.44, 6.07, 5.46, 5.43, 4.93, 4.87, 4.92, 4.4, 2.15, 0.85, 0.0, 1.26, 2.12, 1.74, 1.27, 2.4, 3.48, 5.46, 6.44, 6.06, 6.01, 6.24, 6.88, 6.95, 6.95, 6.95, 7.35, 7.68, 7.69, 8.05, 8.0, 7.6, 7.89, 7.71, 7.71, 7.89, 7.42, 7.42, 7.45, 7.71, 7.47, 8.14, 9.49, 10.01, 10.01, 8.91, 8.4, 9.06, 9.11, 9.74, 9.36, 7.6, 6.71, 6.71, 7.11, 5.59, 4.22, 3.49, 2.41, 2.53, 1.86, 2.12, 1.79, 1.79, 1.6, -0.0, -0.0, -0.65, -0.0, -0.7, 6.94, 6.51, 6.47, 6.16, 6.16, 5.7, 5.7, 5.34, 5.34, 5.34, 4.92, 4.38, 3.9, 3.47, 4.47, 4.92, 4.02, 4.92, 5.36, 5.29, 6.14, 6.58, 5.81, 5.01, 3.84, 4.84, 4.84, 5.43, 5.43, 4.81, 4.36, 4.16, 3.9, 2.84, 1.49, -0.0, -0.89, -0.95, -0.95, 0.45, 0.76, 1.14, 2.49, 3.79, 4.46, 6.07, 6.44, 6.39, 6.32, 6.24, 6.95, 6.95, 7.35, 7.61, 7.95, 7.69, 8.05, 7.67, 8.0, 8.3, 8.14, 8.14, 7.45, 6.98, 6.51, 6.98, 6.7, 6.64, 7.67, 8.67, 10.23, 10.15, 10.01, 9.83, 9.11, 8.36, 7.89, 9.74, 9.36, 7.6, 6.71, 6.71, 7.11, 5.59, 4.22, 3.49, 2.41, 2.53, 1.86, 2.12, 1.79, 1.79, 1.6, -0.0, -0.0, -0.65, -0.0, -0.7, 6.94, 6.51, 6.47, 6.04, 5.99, 5.7, 5.7, 5.26, 5.7, 5.33, 4.47, 3.97, 3.95, 3.95, 4.02, 4.92, 4.92, 4.92, 5.36, 5.81, 5.81, 5.7, 4.43, 4.75, 5.37, 5.43, 4.19, 3.74, 2.6, 2.07, 3.0, 2.99, 2.44, 1.1, -0.0, -0.76, -1.49, -1.34, -0.45, -0.0, 0.69, 2.26, 4.01, 5.15, 5.43, 5.82, 5.82, 5.77, 5.59, 6.32, 7.02, 7.68, 7.69, 8.06, 7.59, 7.67, 7.67, 8.0, 8.3, 7.89, 8.19, 7.89, 6.98, 6.07, 5.34, 5.43, 6.08, 7.06, 8.03, 9.67, 10.87, 10.8, 10.43, 9.83, 8.36, 8.05, 8.05, 9.36, 9.39, 7.15, 6.21, 6.98, 6.28, 4.22, 2.79, 2.53, 2.3, 2.41, 1.58, 1.7, 1.79, 1.79, 0.95, -0.0, -0.76, -0.79, -1.55, -1.55, 6.94, 6.51, 6.47, 6.04, 5.99, 5.57, 5.7, 5.7, 5.7, 5.24, 4.47, 3.53, 3.95, 4.02, 4.47, 4.92, 4.92, 4.02, 4.02, 5.81, 5.81, 4.09, 2.4, 4.29, 6.44, 5.69, 4.11, 1.49, 0.8, -0.0, 0.72, 0.76, -0.0, -0.0, 1.18, 1.14, -0.0, 0.6, -0.0, -0.0, 0.74, 2.35, 3.9, 4.74, 5.46, 5.21, 5.15, 5.43, 5.69, 6.73, 6.98, 7.41, 7.32, 7.69, 7.67, 7.67, 8.0, 7.89, 7.89, 8.14, 8.36, 7.42, 6.02, 4.4, 4.11, 4.95, 5.94, 6.92, 7.9, 9.2, 10.9, 12.47, 12.7, 11.09, 8.84, 7.6, 7.45, 8.8, 8.91, 7.45, 6.85, 6.7, 3.84, 1.4, 0.87, 0.79, 1.49, 1.4, 1.24, 1.6, 1.79, 1.34, 0.6, -0.0, -0.79, -1.47, -1.55, -1.35, 6.79, 6.79, 6.47, 6.04, 5.99, 5.57, 5.51, 5.57, 5.57, 5.24, 4.02, 3.58, 4.02, 4.47, 4.47, 4.92, 4.92, 4.02, 3.13, 5.36, 5.2, 2.98, 2.98, 2.98, 3.48, 3.76, 3.68, 2.16, 1.08, -0.0, -0.0, -0.0, -0.82, -0.0, 1.08, 2.2, 3.48, 3.35, 2.21, -0.0, 0.79, 3.27, 4.37, 5.49, 5.3, 4.65, 4.74, 4.74, 5.77, 6.39, 6.44, 7.06, 7.07, 7.06, 7.67, 7.67, 7.89, 7.89, 8.19, 8.36, 7.56, 5.75, 3.22, 2.53, 3.4, 4.83, 6.31, 6.31, 7.73, 9.8, 11.87, 13.49, 13.85, 12.94, 11.45, 8.46, 6.28, 6.0, 5.86, 8.19, 6.54, 3.84, 1.49, 0.0, 0.0, 0.0, 1.4, 1.86, 1.7, 1.34, 1.6, 1.26, 0.57, -0.0, -0.73, -0.76, -0.7, -0.81, 6.79, 6.79, 6.3, 5.88, 5.99, 5.57, 5.57, 5.57, 5.57, 4.8, 4.02, 3.58, 4.47, 4.47, 4.47, 4.47, 4.47, 4.47, 2.68, 4.85, 3.79, 3.35, 3.49, 3.49, 2.6, 2.32, 2.4, 3.17, 2.54, 2.26, 0.81, -0.0, -0.79, -0.0, 1.74, 2.68, 3.16, 5.09, 3.6, -0.0, -0.0, 1.07, 3.88, 5.52, 6.31, 7.18, 6.64, 5.43, 5.46, 5.77, 6.44, 6.39, 6.7, 7.44, 7.67, 8.14, 8.63, 8.33, 8.36, 8.46, 6.65, 3.2, 0.87, 1.45, 3.06, 4.8, 6.2, 6.57, 7.08, 9.56, 12.51, 13.99, 13.99, 14.3, 13.64, 11.66, 6.71, 3.74, 2.23, 5.16, 2.86, 1.4, 0.0, -0.61, 0.0, 0.61, 2.4, 3.58, 3.04, 1.7, 1.86, 1.9, 1.24, 0.65, -0.0, -0.0, -0.0, -0.76, 7.21, 6.79, 6.3, 5.81, 5.81, 5.4, 5.4, 5.81, 5.4, 4.77, 3.98, 3.58, 4.47, 4.47, 5.36, 2.24, 3.13, 3.13, 2.68, 2.23, 1.49, 1.58, 2.6, 2.68, 2.4, 1.3, 1.14, 2.49, 2.66, 2.8, 2.32, -0.0, -0.0, -0.0, 0.76, 1.6, 3.58, 5.2, 4.8, 0.88, -1.08, -0.0, 2.4, 4.71, 6.4, 7.59, 8.53, 7.68, 5.43, 5.69, 6.32, 6.39, 7.06, 7.67, 7.89, 8.19, 8.46, 8.05, 8.05, 7.6, 4.47, 0.98, 0.82, 1.58, 2.28, 4.8, 6.97, 7.9, 8.03, 10.23, 12.56, 13.72, 13.4, 14.55, 14.11, 13.21, 10.62, 6.26, 2.24, 2.6, 2.4, 1.2, 0.0, 0.0, 0.79, 1.86, 3.95, 3.83, 4.4, 3.2, 2.23, 1.9, 1.9, 1.4, 0.81, -0.0, -0.0, -0.0, 7.01, 6.51, 6.3, 5.81, 5.81, 5.81, 5.81, 5.81, 5.31, 4.6, 3.87, 3.53, 4.47, 4.02, 4.92, 4.02, 2.68, 2.68, 2.4, 1.9, 2.53, 1.58, 1.2, -0.0, 0.99, 1.27, 1.27, 1.41, 2.73, 2.4, 1.3, -0.0, -0.0, -0.0, 0.87, 1.74, 2.6, 4.57, 4.4, 2.23, -0.0, -0.0, 2.73, 3.76, 5.59, 6.87, 7.97, 8.6, 6.88, 6.69, 5.3, 6.06, 7.07, 7.89, 7.89, 8.01, 8.05, 7.56, 7.89, 5.59, 2.54, -0.0, -0.0, 1.47, 2.39, 4.71, 7.9, 9.3, 10.01, 10.93, 12.94, 12.96, 12.52, 12.94, 13.32, 12.5, 11.6, 9.26, 7.11, 5.81, 6.11, 2.5, 1.88, 2.07, 2.8, 3.51, 4.66, 4.8, 4.24, 4.15, 3.45, 1.9, 1.9, 1.4, 0.73, -0.0, -0.0, -0.0, 6.6, 6.51, 6.1, 5.81, 5.81, 5.81, 5.81, 5.6, 5.31, 4.6, 4.3, 3.53, 4.47, 3.58, 4.02, 4.02, 4.02, 3.95, 3.22, 1.49, 1.0, 1.0, 1.9, -0.0, -0.0, 1.4, -0.0, 1.4, 2.84, 2.48, -0.0, -0.0, -0.0, -0.0, 1.98, 2.97, 1.34, 1.79, 3.72, 2.23, 1.27, 0.99, 2.21, 2.98, 4.4, 6.21, 6.32, 6.97, 7.73, 7.73, 7.36, 6.39, 7.03, 6.79, 7.11, 7.15, 7.15, 6.07, 4.8, 2.23, -0.0, -0.0, 0.81, 1.54, 3.21, 5.76, 8.68, 11.09, 11.4, 11.62, 11.6, 11.89, 12.74, 12.66, 12.18, 11.36, 9.36, 8.49, 8.49, 8.94, 6.66, 4.4, 2.5, 3.04, 3.51, 4.09, 4.46, 4.8, 4.93, 4.0, 3.07, 1.9, 1.9, 1.88, 1.35, -0.0, -0.0, -0.0, 6.51, 6.1, 6.0, 5.6, 5.6, 5.6, 6.0, 6.0, 5.81, 4.8, 4.11, 3.87, 3.53, 3.53, 4.02, 4.02, 3.58, 2.97, 3.2, 1.4, 1.4, 1.4, 2.4, 1.6, 0.95, 1.26, 1.2, -0.0, 1.4, 1.6, 1.4, -0.0, -0.0, 1.4, 2.84, 3.82, 2.68, 1.9, 2.48, 3.79, 2.84, 3.22, 3.74, 3.74, 4.66, 5.43, 5.37, 5.59, 6.53, 7.9, 7.08, 6.7, 6.24, 4.95, 4.43, 4.11, 3.11, 3.48, 2.54, 1.0, -0.0, 0.82, 2.08, 3.02, 4.83, 6.06, 8.95, 11.52, 11.09, 10.25, 9.7, 9.62, 10.8, 11.09, 11.52, 10.6, 9.08, 7.89, 7.98, 7.33, 3.13, 2.23, 2.24, 3.32, 4.46, 4.12, 5.09, 5.43, 5.05, 4.4, 2.5, 2.5, 2.8, 1.88, 1.55, -0.0, -0.0, -0.0, 6.28, 6.1, 6.0, 6.0, 5.6, 6.0, 6.1, 6.0, 5.6, 5.31, 4.6, 3.87, 3.39, 3.39, 4.38, 4.38, 4.02, 3.13, 3.07, 2.6, 2.68, 2.68, 3.13, 1.79, 3.82, 0.95, 1.26, 1.58, 1.58, 2.68, 2.68, 0.89, 1.2, 2.98, 4.0, 3.79, 2.73, 2.73, 3.07, 4.84, 4.4, 3.6, 3.74, 5.81, 5.81, 4.11, 3.9, 4.01, 4.74, 4.83, 5.18, 4.65, 3.87, 3.14, 2.37, 0.78, 1.51, 3.85, 4.95, 2.35, 0.79, 1.6, 3.07, 3.95, 5.38, 6.95, 8.65, 8.65, 7.41, 5.46, 4.84, 6.07, 6.71, 7.28, 8.4, 8.88, 8.18, 7.06, 6.44, 2.21, 0.6, 1.33, 4.29, 4.43, 5.06, 5.0, 5.72, 5.72, 6.08, 4.73, 3.14, 2.5, 2.8, 2.86, 1.41, -0.0, -0.0, -0.0, 7.01, 5.89, 5.75, 6.0, 6.0, 6.0, 6.1, 6.1, 6.0, 5.08, 4.8, 4.11, 3.87, 3.87, 4.3, 4.34, 4.43, 4.02, 3.98, 3.53, 3.13, 3.58, 3.58, 5.36, 4.77, 4.77, 4.77, 2.91, 1.79, 1.34, 3.58, 2.24, 1.79, 3.47, 3.22, 3.07, 3.22, 3.07, 3.22, 4.22, 4.22, 3.74, 3.74, 5.81, 4.65, 2.4, 1.99, 2.16, 2.32, 2.12, 2.28, 2.28, 1.57, 1.59, 1.54, 1.54, 3.1, 6.77, 7.27, 2.99, 1.58, 3.11, 4.01, 4.2, 4.71, 6.21, 6.4, 5.62, 4.04, 4.71, 6.36, 7.8, 7.31, 5.59, 5.2, 5.43, 5.77, 5.43, 5.09, 2.12, 0.54, 1.49, 3.22, 4.83, 5.13, 5.52, 6.64, 6.35, 6.35, 6.32, 6.32, 5.6, 4.4, 2.21, 0.61, -0.0, -0.0, -0.0, 7.01, 6.28, 5.75, 5.75, 6.0, 6.0, 6.51, 6.51, 6.1, 5.6, 4.9, 4.11, 4.3, 4.11, 4.19, 4.77, 4.44, 4.47, 4.02, 4.02, 3.58, 3.58, 4.02, 4.47, 5.33, 5.78, 6.16, 5.7, 5.33, 4.02, 2.68, 2.68, 2.24, 3.47, 2.53, 1.6, 1.6, 2.41, 2.86, 3.74, 3.74, 3.32, 3.2, 2.23, 1.4, -0.0, -0.0, 1.1, 1.18, 1.18, 0.76, -0.0, -0.0, -0.0, -0.0, 2.39, 4.4, 7.65, 8.32, 2.99, 0.76, 3.19, 4.6, 3.32, 3.16, 3.91, 3.64, 3.98, 4.66, 7.11, 8.86, 9.95, 10.52, 9.65, 6.66, 4.15, 2.23, 3.04, 3.58, 4.46, 4.36, 3.16, 3.48, 3.84, 4.71, 6.24, 7.68, 7.92, 7.32, 7.54, 7.85, 7.2, 5.44, 2.8, 0.61, -0.0, -0.78, -0.0, 7.51, 6.28, 5.75, 5.75, 5.75, 5.89, 6.28, 6.28, 6.28, 6.0, 5.08, 4.6, 4.11, 4.34, 4.77, 4.77, 4.88, 4.44, 4.47, 4.02, 4.02, 4.02, 4.02, 4.47, 5.36, 5.81, 6.23, 6.23, 5.81, 5.36, 4.44, 3.58, 4.02, 1.6, 0.8, 0.71, 0.65, 1.6, 2.86, 3.2, 3.04, 2.23, 1.9, 2.4, 1.14, -0.0, -0.0, -0.0, 1.05, 1.14, 1.14, -0.0, -0.0, -0.0, -0.0, 1.9, 2.84, 7.76, 9.77, 3.8, 0.78, 3.53, 4.54, 3.21, 2.34, 3.07, 3.53, 2.95, 5.43, 7.48, 9.23, 10.58, 10.9, 10.95, 8.82, 4.92, 1.26, 3.35, 5.69, 7.68, 7.69, 7.07, 6.25, 6.25, 4.11, 6.44, 8.55, 8.63, 8.24, 8.4, 8.93, 7.56, 6.36, 3.58, 0.7, -0.0, -0.74, -0.0, 7.51, 6.8, 6.28, 5.75, 5.75, 6.28, 6.28, 6.28, 6.28, 5.89, 5.6, 4.9, 4.6, 4.77, 4.77, 4.77, 4.89, 4.88, 4.47, 4.47, 4.47, 4.02, 4.47, 4.47, 4.92, 5.36, 5.81, 5.81, 5.81, 5.36, 4.88, 3.58, 3.82, 2.84, 1.19, 1.14, 2.6, 2.15, 4.11, 2.23, 2.23, 2.98, 2.4, 2.6, 1.14, 1.14, 1.14, 1.3, 1.19, 1.41, 1.08, 1.08, 1.6, 1.58, 1.79, 1.58, 2.8, 5.81, 8.24, 5.72, 1.58, 2.33, 3.7, 3.45, 3.7, 3.52, 3.7, 3.6, 4.47, 6.63, 8.06, 9.84, 11.66, 11.62, 8.05, 4.6, 3.2, 6.53, 8.65, 9.3, 8.94, 8.93, 8.88, 8.67, 6.36, 4.66, 7.21, 8.4, 8.67, 8.82, 8.82, 7.76, 5.64, 3.49, 0.78, -0.71, -0.0, -0.0, 8.0, 7.31, 6.28, 6.13, 6.13, 6.28, 6.28, 6.67, 6.67, 6.28, 6.0, 5.31, 4.6, 4.6, 4.77, 4.8, 4.89, 4.89, 4.92, 4.92, 4.47, 4.47, 4.92, 4.92, 4.92, 5.36, 5.81, 5.81, 5.81, 5.33, 4.44, 3.58, 2.91, 2.48, 1.3, 0.79, 1.66, 2.41, 3.79, 2.73, 0.71, 1.6, 2.6, 2.32, 2.6, 1.3, 1.3, 1.3, 2.2, 2.48, 2.48, 1.58, 2.21, 2.0, 2.24, 2.68, 3.13, 4.24, 4.75, 4.71, 3.33, 4.75, 4.75, 4.75, 3.76, 4.47, 3.9, 3.68, 4.47, 6.7, 8.3, 10.7, 12.49, 11.52, 5.36, 3.9, 6.31, 9.56, 10.91, 11.28, 11.53, 11.5, 11.2, 10.15, 9.33, 7.42, 4.47, 5.77, 7.89, 8.63, 9.26, 5.31, 2.2, 1.4, 0.71, -0.0, -0.0, -0.0, 7.81, 7.71, 6.8, 6.03, 5.86, 6.03, 6.28, 6.67, 6.8, 6.67, 6.28, 5.6, 4.9, 4.6, 4.77, 4.8, 5.33, 5.33, 4.92, 4.92, 4.92, 4.89, 4.89, 5.36, 5.36, 5.78, 5.7, 5.7, 5.7, 4.8, 4.3, 3.58, 3.07, 2.4, 1.49, 1.49, 1.83, 2.73, 1.0, 2.73, 2.73, 1.6, 2.6, 1.6, 2.6, 1.3, 1.3, 2.73, 2.98, 3.79, 4.09, 4.09, 4.09, 4.8, 4.8, 4.8, 4.65, 5.36, 5.93, 5.69, 5.69, 5.93, 4.74, 5.01, 5.01, 3.63, 3.76, 2.8, 4.75, 8.15, 10.66, 11.08, 12.3, 9.36, 6.07, 6.05, 8.66, 11.87, 12.52, 12.51, 13.04, 12.79, 12.29, 11.3, 10.75, 8.63, 4.02, 4.92, 7.56, 8.49, 7.6, 4.24, 1.55, 0.69, 0.73, -0.0, 0.71, 0.71, 8.22, 7.81, 7.2, 6.41, 5.86, 6.03, 6.41, 6.41, 6.8, 6.8, 6.28, 6.1, 5.31, 5.09, 4.77, 4.8, 5.33, 4.89, 4.92, 4.92, 4.89, 4.92, 5.36, 5.36, 5.78, 5.24, 5.09, 5.09, 4.77, 4.3, 3.98, 4.02, 3.88, 3.49, 2.84, 2.53, 2.68, 3.16, 2.84, 2.84, 1.4, 0.8, 1.27, 1.2, 2.4, 2.4, 2.73, 2.73, 3.48, 4.8, 4.8, 4.8, 4.29, 4.65, 4.43, 4.74, 4.74, 4.74, 5.06, 5.93, 5.93, 5.93, 5.59, 5.36, 4.43, 2.53, 2.4, 2.6, 4.74, 8.22, 12.02, 12.49, 12.49, 10.93, 9.03, 8.32, 10.28, 13.75, 14.83, 13.75, 12.65, 12.87, 12.74, 10.63, 8.9, 7.55, 4.02, 6.26, 7.15, 6.71, 5.77, 3.45, 1.47, 0.71, 0.8, 0.71, 1.36, 1.36, 8.3, 8.22, 7.48, 6.41, 5.86, 5.86, 6.41, 6.41, 6.56, 6.8, 6.8, 6.51, 5.81, 5.51, 5.09, 5.75, 4.88, 4.88, 4.92, 4.92, 4.92, 4.92, 4.92, 5.81, 5.36, 4.92, 3.53, 4.47, 4.47, 4.02, 4.47, 4.6, 4.65, 4.12, 3.49, 2.86, 3.35, 3.6, 4.15, 4.24, 2.12, 2.0, 1.26, 2.48, 2.73, 2.73, 2.73, 4.09, 4.46, 4.8, 5.2, 5.2, 4.65, 3.76, 4.02, 5.06, 4.74, 5.06, 4.75, 5.93, 5.93, 5.59, 5.24, 2.86, 1.6, 1.55, 1.6, 3.22, 4.81, 7.81, 11.13, 13.99, 15.84, 15.61, 12.77, 10.28, 10.73, 12.52, 14.3, 14.28, 12.52, 12.52, 11.18, 9.83, 8.05, 5.81, 4.02, 4.43, 6.65, 4.92, 3.74, 4.11, 2.29, 0.69, 1.49, 1.55, 1.52, 1.52, 8.72, 8.0, 7.48, 6.95, 6.41, 5.86, 6.41, 6.41, 6.56, 6.8, 6.8, 6.6, 6.1, 5.81, 5.09, 5.24, 4.88, 4.88, 5.36, 5.36, 5.36, 4.47, 4.47, 4.92, 4.92, 4.85, 4.15, 4.3, 4.6, 5.02, 5.31, 5.47, 4.94, 4.71, 4.07, 4.0, 4.27, 4.6, 4.77, 4.77, 4.34, 4.3, 3.2, 2.53, 1.84, 2.48, 3.16, 4.09, 4.8, 4.8, 4.8, 4.11, 3.76, 3.45, 2.41, 2.79, 4.47, 3.79, 4.11, 5.59, 5.75, 5.01, 5.01, 3.49, 1.8, 0.87, 0.79, 3.22, 5.43, 8.0, 10.43, 13.29, 16.76, 18.62, 16.52, 13.07, 11.16, 11.9, 13.29, 13.65, 13.21, 12.77, 11.06, 8.8, 6.66, 5.36, 4.92, 4.92, 4.02, 3.51, 2.86, 3.72, 3.33, 1.41, 1.36, 2.2, 2.29, 2.29, 8.51, 8.51, 8.0, 6.95, 6.41, 5.59, 6.41, 6.41, 6.56, 6.95, 6.8, 6.8, 6.51, 5.88, 5.57, 5.09, 5.24, 4.89, 4.89, 5.81, 5.36, 4.47, 4.47, 4.89, 5.7, 5.57, 5.4, 5.4, 5.6, 5.6, 5.6, 5.21, 5.21, 4.65, 4.55, 4.0, 4.4, 5.02, 5.09, 5.24, 5.24, 5.24, 4.6, 3.72, 2.23, 2.48, 3.16, 4.09, 5.2, 5.2, 4.8, 3.49, 2.8, 3.22, 4.02, 2.41, 3.07, 3.79, 5.59, 5.01, 4.65, 4.11, 4.11, 3.49, 1.66, 1.49, 0.87, 2.2, 4.95, 7.06, 8.05, 11.75, 15.24, 16.25, 14.67, 12.47, 10.94, 10.98, 11.52, 12.79, 13.29, 12.58, 10.93, 7.57, 6.71, 4.47, 4.92, 5.32, 5.02, 3.45, 2.41, 3.22, 4.03, 3.55, 2.04, 2.04, 2.04, 2.04, 8.91, 8.51, 8.0, 6.95, 6.15, 5.93, 6.41, 6.41, 6.56, 6.95, 6.8, 6.8, 6.6, 6.3, 5.81, 5.57, 5.24, 5.24, 5.24, 5.34, 5.36, 4.92, 4.89, 5.33, 5.7, 5.57, 5.57, 5.4, 5.31, 5.08, 5.08, 5.08, 4.93, 4.93, 4.55, 4.8, 4.8, 5.09, 5.51, 5.57, 5.57, 5.57, 5.99, 5.51, 4.27, 3.14, 3.72, 4.24, 4.77, 4.8, 3.79, 3.49, 3.49, 3.76, 4.43, 4.02, 2.98, 3.9, 5.37, 4.46, 2.23, 1.74, 1.6, 1.66, 2.2, 2.2, 1.55, 1.66, 3.4, 4.44, 5.98, 8.91, 12.09, 13.49, 2.53, 2.69, 5.6, 8.01, 8.51, 9.8, 11.88, 11.8, 10.93, 8.01, 5.81, 5.36, 4.92, 3.82, 4.73, 4.46, 3.43, 3.64, 5.0, 4.29, 2.88, 2.11, 1.55, 1.55, 9.01, 9.01, 8.51, 7.48, 6.15, 5.93, 6.15, 6.41, 6.56, 6.95, 7.2, 6.8, 7.01, 6.6, 6.3, 5.99, 5.57, 5.7, 5.7, 5.34, 5.36, 5.36, 5.36, 5.36, 5.34, 5.7, 5.7, 5.09, 5.09, 4.9, 4.9, 4.8, 4.8, 4.8, 4.8, 4.8, 4.8, 5.09, 5.51, 5.57, 5.57, 5.99, 6.04, 6.47, 5.57, 4.27, 4.4, 4.24, 4.09, 4.46, 4.11, 4.11, 4.11, 4.11, 3.76, 3.76, 2.4, 3.9, 4.19, 2.53, -0.0, -0.0, 0.88, 1.7, 1.55, 2.2, 1.55, 1.41, 1.52, 2.51, 3.6, 4.88, 15.24, 13.35, 3.72, -1.6, 0.0, 4.2, 6.53, 7.93, 9.83, 10.53, 10.01, 8.19, 6.98, 6.07, 3.58, 2.86, 4.43, 5.69, 4.74, 5.37, 5.72, 4.74, 2.88, 1.94, 1.35, 1.35, 9.01, 9.01, 8.91, 8.4, 6.41, 6.15, 6.15, 6.41, 6.56, 6.95, 7.2, 6.8, 7.01, 6.6, 6.72, 6.3, 5.99, 5.57, 5.7, 5.7, 5.78, 5.36, 5.36, 5.36, 5.36, 5.34, 5.33, 5.24, 4.8, 4.6, 4.6, 4.6, 4.6, 4.4, 4.8, 4.8, 5.02, 5.09, 5.51, 5.51, 5.57, 5.57, 6.04, 6.47, 6.16, 5.09, 5.2, 4.8, 4.8, 4.65, 4.65, 5.2, 4.8, 3.79, 4.11, 2.8, 1.7, 3.11, 4.75, 2.95, 1.0, -0.0, -0.0, 1.83, 1.66, 1.83, 1.55, 2.12, 1.55, 2.76, 3.48, 11.12, 16.37, 18.45, 17.2, 11.76, 6.71, 5.06, 6.69, 7.36, 8.1, 9.2, 8.86, 8.55, 7.67, 4.24, 2.4, 2.3, 3.9, 5.38, 6.32, 6.32, 6.64, 5.69, 3.38, 2.2, 0.7, 0.7, 9.01, 9.01, 9.01, 8.51, 7.48, 6.95, 6.15, 6.41, 6.56, 6.95, 7.2, 7.2, 7.01, 7.01, 6.79, 6.3, 6.47, 6.04, 6.14, 5.7, 5.78, 5.78, 5.36, 5.36, 5.36, 5.36, 5.33, 5.33, 4.89, 4.77, 4.77, 4.77, 4.34, 4.19, 4.6, 4.6, 5.02, 5.09, 5.51, 5.51, 5.57, 5.7, 6.16, 6.16, 6.23, 5.7, 5.09, 4.8, 4.8, 5.31, 5.31, 5.81, 4.8, 4.46, 2.73, 2.4, 2.6, 2.3, 2.4, 3.68, 3.49, 1.6, -0.0, 0.87, 1.83, 1.66, 1.66, 2.4, 2.53, 4.57, 6.71, 9.83, 15.05, 17.22, 18.45, 18.23, 16.53, 11.98, 8.8, 6.2, 6.94, 7.67, 8.19, 8.24, 7.06, 2.24, 1.41, 2.2, 3.2, 4.12, 6.09, 7.09, 7.85, 6.95, 5.0, 2.2, 1.27, 1.27, 9.01, 9.01, 9.01, 8.51, 8.0, 6.95, 6.41, 6.41, 6.56, 6.95, 7.2, 7.31, 7.01, 7.01, 7.21, 6.79, 6.47, 6.47, 6.04, 6.16, 6.16, 5.78, 5.81, 5.81, 5.81, 5.81, 5.81, 5.36, 4.89, 4.88, 4.88, 4.44, 4.3, 3.87, 4.11, 4.11, 4.6, 5.09, 5.24, 5.7, 5.78, 5.78, 6.23, 6.23, 6.23, 5.7, 5.51, 5.31, 5.31, 5.31, 5.57, 5.24, 5.7, 4.46, 2.98, 2.98, 3.79, 2.73, -0.0, 1.3, 4.47, 3.76, 2.68, 1.49, 1.66, 1.49, 1.49, 1.49, 4.84, 5.59, 6.65, 9.32, 11.84, 14.83, 15.67, 16.11, 17.48, 17.07, 8.91, 3.27, 3.82, 6.36, 6.94, 6.87, 3.48, 1.2, 2.2, 2.26, 3.27, 4.12, 5.41, 8.01, 9.2, 8.59, 6.35, 2.79, 2.07, 2.07, 9.01, 9.01, 9.01, 9.01, 8.0, 7.48, 6.41, 6.41, 6.56, 7.2, 7.31, 7.31, 7.51, 7.09, 7.01, 7.21, 6.79, 6.51, 6.47, 6.6, 6.16, 6.23, 6.23, 5.81, 5.81, 6.26, 5.81, 5.36, 4.89, 4.89, 4.89, 4.89, 4.77, 4.11, 4.11, 4.3, 4.77, 5.33, 5.81, 5.81, 5.81, 5.81, 5.81, 5.81, 5.78, 5.57, 5.31, 5.31, 5.31, 5.57, 5.57, 5.09, 4.6, 3.88, 3.48, 3.48, 3.79, 1.55, -0.0, -0.0, 3.22, 4.74, 4.43, 2.53, 2.6, 1.83, 2.41, 4.8, 5.2, 5.75, 6.94, 8.01, 10.16, 11.45, 11.88, 13.76, 16.63, 17.16, 13.07, 2.5, 0.0, 2.95, 4.15, 3.44, 1.0, 0.53, 2.12, 2.99, 3.8, 4.83, 5.78, 8.57, 9.9, 9.66, 7.61, 5.72, 3.49, 3.49, 9.01, 9.01, 9.42, 9.01, 8.51, 7.48, 6.95, 6.41, 6.41, 7.2, 7.31, 7.31, 7.51, 7.51, 7.09, 7.26, 6.79, 6.94, 6.51, 6.61, 6.61, 6.68, 6.23, 6.26, 6.26, 6.71, 6.26, 5.36, 5.33, 5.34, 5.78, 5.7, 4.9, 4.8, 4.6, 4.77, 5.33, 5.36, 5.36, 5.36, 5.34, 5.7, 5.57, 5.81, 5.47, 5.37, 5.6, 5.81, 5.4, 5.57, 5.51, 4.8, 4.8, 4.37, 3.48, 3.79, 3.79, 1.55, -0.0, -0.0, 2.41, 4.11, 4.01, 3.22, 2.53, 3.49, 4.8, 4.85, 4.66, 5.59, 6.98, 8.05, 8.49, 8.94, 10.25, 12.87, 16.47, 16.83, 15.78, 10.62, 2.5, 1.84, 2.97, 2.75, 2.23, 2.66, 2.83, 4.0, 4.83, 5.76, 6.24, 8.3, 10.91, 10.79, 9.78, 7.54, 4.73, 4.73, 9.01, 9.01, 9.42, 9.42, 9.01, 8.0, 7.08, 6.41, 6.41, 6.41, 7.31, 7.31, 7.51, 7.51, 7.51, 7.26, 7.26, 6.94, 6.94, 7.06, 6.61, 6.61, 6.68, 6.68, 6.68, 7.58, 6.71, 5.81, 5.34, 5.78, 6.14, 5.81, 5.81, 5.31, 5.09, 5.24, 5.33, 5.33, 5.24, 5.57, 5.6, 6.0, 5.75, 5.82, 5.46, 5.58, 5.47, 5.31, 5.31, 5.51, 5.31, 4.93, 4.65, 4.65, 4.65, 3.73, 4.11, 2.98, 0.98, 0.76, 2.84, 3.48, 3.22, 2.76, 2.68, 5.21, 5.82, 4.66, 3.58, 4.47, 6.71, 8.46, 8.49, 7.21, 8.63, 12.7, 15.18, 16.52, 16.92, 17.15, 14.23, 11.04, 8.68, 8.0, 6.22, 6.68, 5.78, 5.76, 6.95, 7.64, 7.64, 9.04, 10.73, 10.99, 10.73, 8.76, 6.25, 6.25, 9.01, 9.01, 9.42, 9.42, 9.01, 8.51, 7.48, 6.95, 6.41, 6.41, 6.95, 7.31, 7.51, 7.51, 7.51, 7.69, 7.26, 7.4, 6.94, 7.06, 7.06, 7.06, 7.06, 7.06, 7.51, 7.51, 6.71, 6.26, 5.78, 5.7, 5.99, 5.81, 5.81, 5.81, 5.99, 5.57, 5.57, 5.4, 5.6, 5.75, 5.86, 5.86, 5.86, 5.86, 5.86, 5.82, 5.43, 5.08, 5.08, 5.21, 5.58, 5.75, 5.21, 5.21, 4.65, 4.29, 3.78, 2.86, 2.68, 1.6, 2.41, 2.53, 2.76, 1.74, 3.22, 4.81, 5.77, 5.06, 2.97, 2.97, 4.47, 7.35, 10.43, 10.7, 9.9, 10.9, 13.1, 14.42, 16.02, 18.31, 19.61, 19.21, 16.99, 14.3, 12.72, 10.73, 9.21, 9.19, 9.19, 9.56, 9.56, 9.9, 10.73, 11.83, 10.73, 9.7, 7.32, 7.32, 9.01, 9.01, 9.21, 9.7, 9.42, 9.01, 8.22, 7.08, 6.56, 6.41, 6.56, 7.2, 7.51, 7.51, 7.51, 7.69, 7.69, 7.4, 7.4, 6.97, 7.06, 6.97, 7.4, 7.4, 7.4, 7.07, 6.71, 6.26, 6.23, 5.78, 5.7, 5.57, 5.81, 5.81, 5.81, 5.6, 5.6, 5.75, 5.49, 5.49, 5.86, 5.86, 6.13, 6.13, 5.75, 6.4, 6.4, 6.0, 5.75, 5.75, 5.75, 6.0, 6.0, 5.21, 5.08, 4.55, 4.0, 3.16, 2.86, 2.68, 2.68, 1.66, 1.6, 2.23, 2.8, 3.84, 4.01, 4.75, 4.74, 3.35, 2.98, 4.81, 9.65, 13.89, 15.78, 12.37, 10.24, 10.55, 12.29, 16.69, 19.66, 19.66, 16.82, 14.48, 13.94, 13.87, 13.48, 11.94, 10.35, 9.52, 9.14, 9.45, 9.6, 10.09, 11.04, 10.09, 8.18, 8.18, 9.21, 9.21, 9.21, 9.7, 9.7, 9.21, 8.72, 8.22, 7.2, 6.41, 6.56, 7.2, 7.31, 7.51, 7.58, 7.74, 7.69, 7.4, 7.4, 7.4, 7.4, 7.84, 7.69, 7.26, 7.4, 7.13, 6.71, 6.71, 6.71, 5.78, 5.7, 5.51, 5.4, 5.6, 6.0, 6.0, 5.75, 5.75, 5.75, 5.75, 6.0, 6.0, 6.0, 6.0, 6.0, 6.1, 6.1, 6.51, 6.1, 6.1, 6.3, 6.3, 5.81, 5.4, 4.9, 4.55, 4.0, 3.43, 3.16, 2.86, 2.53, 2.3, 2.23, 2.23, 2.12, 2.84, 1.8, 3.79, 5.93, 5.93, 4.54, 4.6, 7.2, 12.18, 18.16, 19.86, 10.75, 4.26, 6.32, 11.3, 15.58, 16.03, 14.31, 14.15, 14.94, 15.14, 14.91, 13.87, 10.8, 8.49, 7.28, 7.28, 7.54, 8.55, 10.09, 9.7, 9.14, 9.14, 9.21, 9.21, 9.21, 9.63, 9.7, 9.7, 9.21, 8.72, 7.81, 7.2, 6.41, 6.56, 7.31, 7.31, 7.58, 7.74, 7.74, 7.87, 7.84, 7.87, 7.87, 8.17, 8.17, 7.69, 7.06, 6.68, 6.71, 6.71, 6.71, 6.65, 5.57, 5.4, 5.81, 5.6, 6.0, 6.0, 6.0, 5.6, 5.81, 5.81, 5.81, 5.6, 5.6, 5.6, 6.23, 6.3, 6.3, 6.3, 6.3, 6.47, 6.47, 6.47, 5.99, 5.51, 4.8, 4.27, 4.0, 3.43, 3.43, 3.15, 2.86, 2.68, 3.79, 2.23, 2.21, 1.49, 1.26, 2.84, 5.2, 6.52, 5.82, 5.59, 6.71, 10.28, 16.02, 22.73, 17.44, 6.71, 2.86, 7.2, 11.53, 13.39, 13.56, 13.64, 14.23, 14.65, 14.44, 13.43, 10.15, 5.46, 5.06, 5.06, 6.7, 7.59, 9.14, 9.3, 9.14, 9.14, 8.72, 8.72, 9.21, 9.21, 9.7, 9.7, 9.21, 8.79, 8.3, 7.31, 6.8, 6.56, 7.2, 7.31, 8.0, 7.74, 8.17, 7.87, 7.87, 7.87, 8.33, 8.77, 8.33, 7.97, 7.13, 6.71, 7.15, 7.15, 7.15, 6.61, 6.3, 6.3, 6.3, 6.3, 5.88, 5.81, 5.81, 5.81, 5.81, 5.4, 5.4, 5.81, 5.81, 5.81, 5.81, 5.81, 6.3, 6.47, 6.04, 6.16, 6.16, 6.16, 5.7, 5.09, 4.27, 4.0, 4.0, 4.07, 3.73, 3.48, 3.49, 2.98, 3.79, 3.49, 2.41, 2.41, 2.53, 3.16, 4.8, 6.13, 6.08, 6.8, 7.6, 9.83, 13.84, 18.63, 20.44, 16.96, 11.99, 10.52, 11.52, 11.89, 12.52, 12.35, 11.75, 11.81, 12.72, 11.12, 7.28, 3.48, 2.79, 5.77, 6.35, 7.54, 8.49, 9.7, 9.7, 9.7, 8.72, 8.72, 9.21, 9.21, 9.7, 9.7, 9.7, 9.21, 8.72, 8.22, 7.31, 6.8, 6.8, 7.2, 7.51, 8.17, 8.17, 8.3, 7.87, 8.3, 8.77, 8.79, 8.86, 8.03, 7.6, 7.15, 7.6, 7.15, 7.13, 6.51, 6.3, 6.3, 6.3, 6.3, 6.3, 5.88, 5.81, 5.81, 5.81, 5.81, 5.4, 5.4, 5.81, 5.81, 5.81, 5.99, 5.99, 6.04, 6.16, 6.23, 6.23, 6.23, 5.78, 4.77, 3.88, 3.78, 4.07, 4.07, 4.07, 3.79, 3.15, 3.49, 3.79, 3.49, 3.49, 3.76, 2.84, 2.6, 4.22, 5.46, 6.32, 7.76, 9.21, 11.06, 12.07, 13.77, 16.03, 17.38, 18.66, 17.27, 11.89, 8.67, 7.76, 7.6, 8.46, 9.07, 9.13, 5.69, 3.16, 3.48, 3.16, 3.48, 7.03, 7.73, 8.25, 9.18, 10.0, 10.0, 8.72, 8.72, 9.21, 9.21, 9.63, 9.7, 9.7, 9.21, 8.79, 8.72, 8.42, 7.31, 6.8, 7.01, 7.01, 7.51, 8.17, 8.17, 8.3, 8.33, 8.77, 8.87, 8.92, 8.49, 7.6, 7.6, 7.6, 7.6, 7.07, 6.79, 6.79, 6.79, 6.79, 6.36, 6.3, 6.3, 5.88, 5.81, 5.81, 5.81, 5.81, 5.4, 5.81, 5.81, 5.99, 5.99, 5.99, 6.16, 6.68, 6.71, 6.26, 6.26, 5.78, 4.77, 4.11, 4.0, 4.07, 4.07, 4.07, 4.07, 3.79, 3.2, 4.11, 2.68, 2.84, 5.01, 2.8, 2.6, 3.58, 4.19, 5.59, 6.39, 10.16, 12.14, 12.77, 11.08, 12.14, 14.68, 18.66, 22.2, 18.1, 9.39, 4.24, 3.74, 3.13, 2.91, 2.86, 3.14, 3.16, 3.78, 4.09, 3.72, 6.4, 7.47, 8.06, 8.97, 10.1, 10.1, 8.51, 8.51, 8.51, 9.01, 9.21, 9.7, 9.7, 9.7, 9.21, 8.72, 8.48, 8.0, 8.17, 7.51, 7.01, 7.01, 7.51, 7.74, 8.17, 8.33, 8.77, 8.87, 8.92, 8.49, 8.05, 8.05, 8.05, 7.58, 7.4, 6.79, 6.79, 6.79, 6.94, 6.94, 6.94, 6.47, 6.3, 5.88, 5.88, 5.81, 5.81, 5.81, 5.4, 6.28, 5.57, 5.99, 6.16, 6.23, 6.68, 6.71, 6.23, 5.78, 5.7, 5.24, 4.8, 4.55, 4.37, 4.07, 4.07, 4.07, 3.79, 3.49, 3.79, 2.41, 2.23, 4.65, 2.6, 2.21, 2.21, 3.79, 4.29, 5.3, 8.15, 13.13, 13.89, 11.84, 9.36, 12.94, 18.31, 21.26, 20.38, 16.25, 11.09, 5.31, 2.24, 2.6, 4.0, 3.45, 4.0, 4.4, 4.0, 3.6, 4.66, 7.42, 8.36, 9.74, 10.7, 10.52, 8.51, 8.51, 8.51, 9.01, 9.01, 9.63, 9.7, 9.7, 9.21, 8.79, 8.91, 8.91, 8.64, 8.17, 7.69, 7.09, 7.01, 7.51, 7.74, 8.17, 8.33, 8.86, 8.92, 8.49, 8.49, 8.49, 8.49, 7.97, 7.4, 7.26, 7.4, 6.94, 6.94, 6.94, 6.94, 6.94, 6.47, 6.3, 5.88, 5.88, 5.81, 5.99, 5.31, 6.28, 5.99, 6.47, 6.23, 6.23, 6.68, 6.16, 6.16, 5.99, 5.81, 5.81, 5.81, 5.08, 4.93, 4.55, 4.07, 4.07, 3.49, 3.49, 3.76, 2.21, 2.53, 3.79, 3.49, 3.35, 3.16, 3.47, 2.35, 3.4, 6.64, 11.88, 15.67, 14.39, 10.49, 11.52, 14.79, 16.48, 15.13, 14.31, 13.88, 9.74, 5.77, 5.16, 5.86, 5.86, 4.73, 5.16, 3.97, 3.97, 3.97, 7.11, 8.49, 10.28, 11.15, 10.7, 8.51, 8.51, 8.51, 8.91, 9.01, 9.21, 9.7, 9.7, 9.21, 9.21, 8.96, 8.96, 8.64, 8.64, 8.21, 8.17, 7.69, 7.26, 7.69, 7.69, 8.17, 8.3, 8.42, 8.47, 8.49, 8.49, 8.03, 7.97, 7.4, 7.4, 7.4, 7.4, 6.97, 6.94, 6.94, 6.94, 6.94, 6.47, 6.47, 6.04, 6.04, 5.99, 5.57, 5.57, 6.94, 6.47, 6.16, 6.23, 6.16, 6.04, 6.3, 6.1, 6.1, 6.1, 6.0, 5.6, 5.47, 4.37, 4.07, 3.48, 3.79, 3.79, 3.48, 3.79, 3.79, 4.11, 3.07, 3.35, 3.22, 3.33, 2.35, 3.11, 4.75, 8.15, 12.87, 16.11, 17.66, 14.92, 10.26, 6.64, 5.02, 8.05, 11.99, 11.71, 8.67, 7.28, 7.76, 7.56, 4.87, 5.36, 4.02, 4.02, 4.02, 8.05, 9.36, 9.72, 10.52, 11.15, 8.51, 8.51, 8.51, 8.51, 8.91, 9.01, 9.63, 9.7, 9.27, 9.39, 9.39, 8.96, 8.64, 8.64, 8.77, 8.77, 8.77, 8.33, 7.87, 7.69, 7.74, 7.87, 7.97, 7.97, 8.47, 8.05, 8.03, 7.51, 7.51, 7.51, 7.4, 7.4, 7.4, 6.94, 6.94, 6.94, 6.94, 6.94, 6.47, 6.47, 6.04, 5.99, 5.57, 5.7, 6.23, 7.11, 6.6, 6.16, 6.04, 6.3, 6.3, 6.3, 6.3, 6.3, 6.3, 5.81, 5.81, 4.55, 4.0, 3.78, 3.78, 3.78, 4.11, 3.79, 3.79, 3.79, 3.48, 4.11, 2.4, 2.47, 2.47, 2.98, 5.01, 6.28, 8.94, 13.59, 17.42, 21.7, 15.72, 3.95, 0.0, 3.45, 8.84, 10.7, 9.28, 7.92, 6.22, 4.47, 4.02, 3.97, 3.97, 3.97, 4.73, 8.63, 9.83, 9.83, 9.83, 9.83, 8.72, 8.72, 8.51, 8.51, 8.51, 9.01, 9.21, 9.21, 9.21, 9.39, 8.96, 9.11, 8.67, 8.79, 8.79, 8.79, 9.32, 9.32, 8.87, 8.33, 7.87, 7.87, 7.97, 7.97, 8.03, 8.05, 7.58, 7.51, 7.51, 7.97, 7.97, 7.4, 7.4, 7.4, 6.94, 6.94, 6.94, 6.94, 6.94, 6.51, 6.47, 6.16, 6.16, 6.23, 6.71, 7.13, 7.06, 6.61, 6.47, 6.47, 6.04, 6.04, 6.04, 6.04, 5.99, 5.99, 5.31, 4.8, 4.0, 3.43, 3.43, 3.72, 3.72, 4.8, 4.46, 3.79, 4.11, 3.49, 2.4, 1.49, 3.07, 3.48, 5.2, 5.43, 7.07, 8.94, 13.51, 19.71, 24.07, 19.33, 12.25, 9.28, 9.83, 9.39, 8.05, 7.15, 4.47, 3.82, 3.07, 3.07, 4.0, 5.05, 5.69, 7.67, 9.6, 8.55, 8.55, 8.55, 9.21, 9.21, 8.72, 8.72, 8.51, 8.72, 9.21, 9.21, 9.39, 8.96, 9.11, 9.11, 8.79, 8.79, 8.79, 8.79, 9.32, 9.32, 9.32, 8.87, 8.86, 8.42, 8.42, 8.42, 8.03, 7.6, 7.13, 7.58, 7.58, 7.97, 7.97, 7.97, 7.4, 7.4, 7.4, 7.4, 6.97, 6.94, 6.94, 7.06, 6.61, 6.61, 6.68, 6.68, 6.71, 6.68, 6.68, 6.61, 6.6, 6.6, 6.16, 6.16, 6.16, 5.99, 5.99, 5.57, 5.57, 5.31, 4.8, 4.27, 3.72, 3.88, 3.88, 4.8, 4.46, 4.46, 4.11, 3.49, 2.53, 2.41, 3.58, 3.58, 4.8, 5.43, 5.82, 7.07, 10.87, 15.09, 19.33, 21.0, 21.35, 20.68, 19.61, 14.84, 10.05, 7.57, 3.97, 2.51, 2.07, 2.79, 4.12, 5.38, 6.06, 8.67, 8.05, 6.07, 6.07, 6.07, 9.21, 9.21, 9.21, 8.72, 8.72, 8.72, 8.72, 8.96, 8.96, 8.96, 9.11, 9.11, 8.67, 8.79, 8.79, 8.79, 9.23, 9.23, 9.32, 9.32, 8.92, 8.92, 8.92, 8.47, 8.05, 7.58, 7.13, 7.58, 7.58, 8.03, 7.97, 7.97, 7.4, 7.4, 7.4, 7.4, 7.4, 7.07, 7.06, 7.06, 7.06, 7.13, 7.13, 7.13, 6.68, 6.68, 6.68, 6.61, 6.61, 6.61, 6.16, 6.16, 6.14, 6.14, 5.7, 5.57, 5.57, 5.51, 5.09, 4.4, 4.27, 4.27, 4.27, 4.11, 5.2, 4.46, 3.79, 3.48, 3.48, 3.16, 4.09, 3.58, 4.19, 4.81, 5.15, 6.44, 8.95, 12.29, 14.7, 15.74, 18.34, 22.08, 24.26, 20.0, 14.18, 12.39, 8.67, 1.13, 0.0, 1.35, 5.72, 5.3, 5.37, 5.77, 4.19, 2.86, 2.86, 2.86, 9.21, 9.21, 9.21, 8.72, 8.72, 8.72, 8.72, 8.91, 8.91, 8.96, 9.11, 9.11, 8.64, 8.64, 8.64, 8.79, 8.79, 8.79, 9.23, 9.23, 9.32, 9.32, 9.32, 8.92, 8.05, 7.58, 7.51, 7.58, 7.58, 8.03, 7.97, 7.97, 7.51, 7.51, 7.51, 7.51, 7.51, 7.51, 7.51, 7.07, 7.13, 7.13, 7.13, 7.13, 7.13, 6.68, 6.68, 6.68, 6.68, 6.61, 6.16, 6.16, 6.16, 6.14, 5.7, 5.7, 5.7, 5.51, 5.09, 5.02, 4.27, 4.27, 4.27, 4.4, 4.27, 4.8, 4.09, 3.58, 3.58, 3.58, 3.93, 3.35, 3.35, 4.11, 5.21, 6.0, 7.89, 10.01, 11.26, 11.87, 15.09, 20.7, 24.07, 21.06, 17.51, 17.38, 13.19, 1.6, -1.63, 1.14, 4.75, 2.3, 1.4, 1.49, 1.58, 1.86, 1.86, 1.86, 9.21, 9.21, 9.21, 8.72, 8.72, 8.72, 8.72, 8.72, 8.91, 8.91, 8.91, 8.64, 8.64, 8.64, 8.64, 8.64, 8.77, 8.79, 8.79, 9.23, 9.32, 9.32, 9.32, 8.47, 8.05, 7.51, 7.51, 7.58, 8.03, 8.03, 8.03, 7.97, 7.52, 7.51, 7.51, 7.51, 7.51, 7.51, 7.51, 7.58, 7.58, 7.58, 7.13, 7.13, 7.06, 7.13, 7.13, 7.13, 7.06, 6.61, 6.6, 6.16, 6.16, 6.16, 5.7, 5.7, 5.7, 5.67, 5.09, 5.09, 4.6, 4.6, 4.4, 4.4, 4.27, 4.8, 3.72, 3.16, 2.73, 2.95, 2.53, 2.76, 3.79, 4.84, 5.75, 6.16, 6.94, 8.4, 9.3, 9.0, 11.87, 18.33, 22.69, 21.45, 19.48, 18.97, 13.54, 0.89, -2.98, 1.24, 1.26, 0.57, 0.0, 0.6, 1.2, 1.79, 1.79, 1.79, 9.21, 9.21, 9.21, 8.72, 8.72, 8.72, 8.3, 8.3, 8.3, 8.48, 8.48, 8.48, 8.48, 8.64, 8.64, 8.64, 8.64, 8.77, 8.79, 8.79, 8.79, 9.23, 9.32, 8.49, 8.03, 7.51, 7.58, 7.58, 8.03, 8.03, 8.03, 8.03, 8.03, 7.52, 7.51, 7.51, 7.51, 7.58, 7.58, 7.58, 7.58, 7.58, 7.13, 7.13, 7.13, 7.13, 7.13, 7.13, 7.06, 6.61, 6.6, 6.16, 6.16, 6.16, 6.14, 5.7, 5.7, 5.7, 5.24, 5.09, 4.6, 4.6, 4.6, 4.52, 3.88, 4.8, 4.09, 3.16, 2.73, 3.58, 3.58, 3.48, 4.19, 4.84, 4.84, 5.46, 5.82, 7.07, 7.68, 8.03, 9.92, 14.13, 19.08, 20.48, 21.08, 21.28, 16.4, 2.8, 0.45, 1.6, 2.0, 1.2, 0.45, 0.63, 0.95, 1.58, 1.58, 1.58, 9.21, 9.21, 9.21, 8.79, 8.72, 8.72, 8.22, 8.22, 8.3, 8.3, 8.48, 8.48, 8.48, 8.48, 8.64, 8.64, 8.64, 8.64, 8.77, 8.77, 8.79, 9.23, 8.87, 8.49, 8.03, 7.58, 7.58, 7.6, 8.05, 8.03, 8.03, 8.03, 8.03, 7.58, 7.58, 7.58, 8.03, 8.03, 8.03, 7.6, 7.58, 7.58, 7.13, 7.13, 7.13, 7.13, 7.13, 7.07, 7.06, 6.61, 6.61, 6.6, 6.6, 6.16, 6.16, 5.7, 5.7, 5.7, 5.67, 5.24, 5.24, 4.6, 4.6, 4.6, 4.11, 4.57, 3.58, 3.58, 3.22, 3.6, 3.6, 2.84, 3.48, 4.11, 4.43, 4.74, 5.43, 5.77, 6.73, 7.68, 9.3, 10.9, 14.13, 18.08, 21.02, 23.5, 6.25, -1.2, -1.33, 1.23, 4.07, 2.53, 1.88, 0.65, 1.16, 1.61, 1.61, 1.61, 9.21, 9.21, 9.21, 9.21, 8.72, 8.72, 8.22, 8.22, 8.22, 8.22, 8.48, 8.48, 8.48, 8.48, 8.48, 8.64, 8.64, 8.64, 8.64, 8.77, 8.79, 9.23, 8.87, 8.05, 7.58, 7.58, 7.6, 8.05, 8.05, 8.05, 8.03, 8.03, 8.03, 8.03, 8.03, 8.03, 8.05, 8.05, 8.05, 7.6, 7.6, 7.6, 7.13, 7.58, 7.58, 7.58, 7.58, 7.07, 7.06, 7.06, 6.61, 6.61, 6.68, 6.16, 6.16, 6.14, 6.14, 5.7, 5.7, 5.24, 5.24, 5.24, 4.77, 4.6, 4.11, 4.57, 3.83, 4.22, 4.22, 3.58, 2.68, 2.41, 2.53, 3.48, 3.63, 4.01, 5.06, 4.95, 6.39, 7.69, 8.67, 9.65, 10.9, 15.99, 21.28, 19.0, 3.43, -3.38, -2.8, 0.64, 3.97, 4.56, 3.64, 2.2, 1.84, 2.23, 2.23, 2.23, 9.21, 9.21, 9.21, 9.21, 8.79, 8.72, 8.3, 8.22, 8.22, 8.22, 8.22, 8.48, 8.48, 8.48, 8.48, 8.48, 8.64, 8.64, 8.64, 8.64, 8.79, 9.23, 8.92, 8.05, 7.58, 7.6, 7.6, 8.05, 8.05, 8.05, 8.03, 8.03, 8.03, 8.03, 8.05, 8.05, 8.05, 8.05, 8.05, 7.6, 7.6, 7.6, 7.6, 7.58, 7.58, 7.58, 7.51, 7.07, 7.06, 7.06, 7.13, 6.68, 6.68, 6.6, 6.16, 6.16, 6.16, 6.14, 5.7, 5.24, 5.24, 5.24, 4.77, 4.34, 4.77, 4.11, 4.15, 4.15, 4.22, 2.53, 2.76, 3.35, 2.84, 1.98, 2.68, 3.63, 4.29, 5.06, 6.08, 7.82, 8.63, 9.03, 10.55, 14.42, 27.62, 17.31, -0.0, -5.06, -3.55, -0.0, 3.6, 5.13, 4.16, 3.11, 3.35, 2.84, 2.84, 2.84, 9.21, 9.21, 9.21, 9.21, 8.79, 8.72, 8.3, 8.22, 8.22, 8.22, 8.42, 8.48, 8.48, 8.48, 8.48, 8.64, 8.64, 8.64, 8.64, 8.64, 8.67, 9.11, 8.47, 8.05, 7.6, 7.6, 8.05, 8.05, 8.05, 8.05, 8.05, 8.05, 8.05, 8.05, 8.05, 8.05, 8.05, 8.05, 8.05, 7.6, 7.6, 7.6, 7.58, 7.58, 7.58, 7.51, 7.51, 7.51, 7.07, 7.06, 7.13, 7.13, 7.13, 6.61, 6.16, 6.16, 6.16, 6.16, 5.7, 5.7, 5.24, 5.24, 5.24, 4.88, 4.77, 4.77, 4.85, 4.66, 3.84, 2.76, 2.76, 3.35, 3.35, 1.83, 1.8, 2.76, 3.47, 5.49, 6.44, 7.35, 8.0, 8.63, 10.95, 22.57, 27.55, 15.5, -0.0, -4.43, -2.6, -0.67, 2.69, 5.7, 5.21, 4.36, 4.01, 3.79, 3.79, 3.79, 9.21, 9.21, 9.21, 9.21, 8.79, 8.72, 8.3, 8.22, 8.42, 8.48, 8.48, 8.48, 8.48, 8.48, 8.48, 8.64, 8.64, 8.64, 8.64, 8.64, 8.64, 8.64, 8.05, 7.6, 7.6, 7.6, 8.05, 8.05, 8.05, 8.05, 8.05, 8.05, 8.49, 8.49, 8.49, 8.49, 8.05, 8.05, 8.05, 7.6, 7.6, 7.58, 7.58, 7.51, 7.51, 7.51, 7.51, 7.51, 7.07, 7.13, 7.13, 7.13, 7.13, 6.61, 6.6, 6.16, 6.16, 6.16, 6.16, 5.7, 5.7, 5.78, 5.33, 4.89, 4.88, 4.77, 5.33, 5.02, 4.22, 3.48, 2.95, 2.53, 2.76, 2.4, 1.83, 2.53, 3.63, 5.06, 6.44, 6.82, 7.03, 8.55, 14.49, 21.82, 27.32, 15.53, -1.34, -5.05, -2.72, -0.0, 2.89, 6.29, 6.42, 5.59, 5.37, 5.43, 5.43, 5.43, 9.21, 9.21, 9.21, 9.21, 8.79, 8.72, 8.3, 8.22, 8.22, 8.48, 8.48, 8.48, 8.48, 8.48, 8.48, 8.64, 8.64, 8.64, 8.64, 8.64, 8.64, 8.33, 8.03, 7.6, 7.6, 8.05, 8.05, 8.05, 8.05, 8.05, 8.05, 8.49, 8.49, 8.49, 8.49, 8.49, 8.05, 8.05, 8.05, 8.03, 7.58, 7.58, 7.51, 7.51, 7.51, 7.51, 7.51, 7.51, 7.58, 7.13, 7.13, 7.13, 7.13, 6.68, 6.61, 6.6, 6.68, 6.23, 6.16, 5.7, 5.78, 5.78, 5.78, 5.33, 4.89, 4.89, 5.33, 5.24, 5.09, 4.22, 3.16, 2.68, 2.68, 2.53, 2.53, 2.68, 3.35, 4.74, 6.08, 6.44, 7.03, 8.4, 13.99, 19.08, 26.54, 19.1, 0.0, -7.6, -3.47, -0.0, 3.61, 6.21, 7.73, 7.59, 7.41, 6.32, 6.32, 6.32, 9.01, 9.01, 9.21, 9.21, 8.79, 8.72, 8.3, 8.22, 8.22, 8.48, 8.48, 8.48, 8.48, 8.48, 8.48, 8.64, 8.64, 8.64, 8.64, 8.48, 8.64, 7.97, 8.05, 7.6, 7.6, 8.05, 8.05, 8.05, 8.05, 8.49, 8.49, 8.49, 8.49, 8.49, 8.49, 8.49, 8.05, 8.03, 8.03, 8.03, 7.52, 7.51, 7.51, 7.58, 7.58, 7.58, 7.58, 7.58, 7.58, 7.58, 7.58, 7.58, 7.13, 7.13, 6.68, 6.68, 6.68, 6.68, 6.23, 6.23, 6.23, 6.23, 5.78, 5.78, 5.33, 5.33, 5.33, 5.67, 5.24, 4.4, 3.58, 3.16, 2.68, 2.95, 3.48, 2.84, 2.84, 4.19, 5.46, 6.44, 7.03, 9.49, 12.37, 16.54, 22.56, 27.9, 16.4, 0.63, -2.88, -0.0, 3.69, 7.02, 9.13, 9.92, 8.32, 8.05, 8.05, 8.05, 9.01, 9.01, 9.21, 9.21, 8.79, 8.72, 8.3, 8.22, 8.22, 8.22, 8.48, 8.48, 8.48, 8.48, 8.48, 8.64, 8.64, 8.64, 8.48, 8.48, 8.33, 8.03, 7.6, 7.6, 8.05, 8.05, 8.05, 8.49, 8.49, 8.49, 8.49, 8.49, 8.49, 8.05, 8.05, 8.05, 8.03, 8.03, 7.97, 7.97, 7.97, 7.51, 7.58, 7.58, 7.58, 7.58, 7.58, 7.58, 7.58, 7.58, 7.58, 7.13, 7.13, 7.13, 7.13, 6.68, 6.68, 6.68, 6.23, 6.23, 6.23, 6.23, 6.23, 5.78, 5.26, 5.33, 5.78, 5.78, 5.7, 5.09, 4.15, 3.22, 2.68, 2.68, 3.48, 3.48, 3.22, 4.22, 5.21, 5.82, 8.3, 9.97, 11.52, 15.01, 19.86, 26.48, 27.32, 16.3, 5.64, 2.83, 4.28, 6.44, 9.84, 10.91, 9.67, 9.65, 9.65, 9.65, 9.01, 9.01, 9.01, 9.21, 8.79, 8.72, 8.3, 8.22, 8.22, 8.22, 8.48, 8.48, 8.48, 8.48, 8.48, 8.64, 8.64, 8.48, 8.91, 8.64, 8.41, 8.03, 7.6, 7.6, 8.03, 8.03, 8.47, 8.47, 8.47, 8.47, 8.47, 8.05, 8.05, 8.05, 8.05, 8.03, 8.03, 8.03, 7.97, 7.97, 8.03, 7.58, 7.58, 7.58, 7.58, 7.58, 7.58, 7.6, 7.6, 7.6, 7.6, 7.13, 7.13, 7.13, 7.13, 7.13, 6.68, 6.68, 6.68, 6.68, 6.23, 6.23, 6.23, 5.7, 5.7, 5.7, 5.78, 6.23, 5.78, 5.31, 4.15, 3.22, 3.16, 3.16, 3.48, 3.35, 3.79, 3.16, 4.19, 6.94, 8.63, 10.16, 12.04, 14.3, 18.78, 24.59, 24.91, 17.16, 9.83, 7.15, 5.86, 6.28, 9.21, 11.28, 10.53, 10.23, 10.23, 10.23, 9.01, 9.01, 9.01, 9.21, 8.79, 8.72, 8.3, 8.22, 7.81, 8.22, 8.42, 8.48, 8.48, 8.48, 8.48, 8.48, 8.64, 9.07, 9.11, 8.77, 7.97, 7.58, 7.6, 7.58, 8.03, 8.03, 8.47, 8.47, 8.47, 8.47, 8.05, 8.05, 8.05, 8.05, 8.03, 8.03, 8.03, 8.03, 8.03, 8.03, 8.03, 8.03, 7.58, 7.58, 7.58, 7.6, 7.6, 7.6, 7.6, 7.6, 7.6, 7.13, 7.13, 7.13, 7.13, 7.13, 7.13, 7.13, 6.68, 6.68, 6.68, 6.68, 6.23, 6.16, 5.7, 5.78, 5.78, 6.23, 6.23, 5.78, 4.77, 4.15, 3.58, 3.16, 3.48, 3.35, 4.11, 4.19, 5.59, 7.42, 8.8, 10.7, 12.49, 14.75, 17.88, 21.9, 20.32, 14.68, 10.47, 8.57, 7.31, 7.33, 8.82, 10.87, 11.44, 12.15, 12.15, 12.15, 9.01, 9.01, 9.01, 9.01, 8.72, 8.72, 8.3, 8.22, 7.81, 8.22, 8.42, 8.48, 8.48, 8.48, 8.48, 8.48, 8.64, 9.11, 8.67, 8.33, 7.97, 7.58, 7.58, 7.97, 7.97, 7.97, 8.47, 8.47, 8.47, 8.03, 8.05, 8.05, 8.05, 8.05, 8.05, 8.03, 8.03, 8.03, 8.03, 8.03, 8.03, 8.03, 8.03, 7.58, 7.58, 7.6, 7.6, 7.6, 7.6, 7.6, 7.6, 7.13, 7.13, 7.13, 7.13, 7.13, 7.13, 7.13, 7.13, 7.13, 6.68, 6.68, 6.23, 6.16, 5.78, 5.78, 6.23, 6.23, 6.23, 5.78, 5.24, 5.09, 4.22, 4.11, 3.48, 3.35, 4.11, 4.84, 5.75, 7.42, 8.8, 11.06, 12.86, 15.12, 17.81, 19.97, 17.44, 13.23, 10.35, 9.56, 8.55, 8.18, 9.14, 10.65, 12.66, 13.42, 13.42, 13.42, 8.91, 8.91, 9.01, 9.01, 8.72, 8.72, 8.3, 8.22, 7.81, 8.22, 8.22, 8.3, 8.3, 8.48, 8.42, 8.48, 8.64, 8.64, 8.77, 8.33, 7.97, 7.97, 7.97, 7.97, 7.97, 7.97, 7.97, 8.03, 8.03, 8.03, 8.03, 8.05, 7.6, 8.05, 8.05, 8.05, 8.05, 8.03, 8.03, 8.03, 8.03, 8.03, 8.03, 8.03, 7.58, 7.58, 7.6, 7.6, 7.6, 7.6, 7.58, 7.13, 7.13, 7.13, 7.13, 7.58, 7.13, 7.13, 7.13, 7.13, 7.13, 6.68, 6.68, 6.23, 6.23, 6.23, 6.26, 6.26, 6.23, 5.78, 5.24, 5.02, 4.0, 5.01, 3.07, 3.35, 4.19, 5.21, 5.82, 7.21, 8.63, 10.49, 12.3, 14.44, 17.59, 18.6, 16.54, 12.7, 10.23, 9.3, 9.3, 9.27, 9.7, 10.94, 11.99, 13.07, 13.07, 13.07, 8.91, 8.91, 9.01, 9.01, 8.72, 8.72, 8.3, 8.22, 7.81, 8.22, 8.22, 8.3, 8.3, 8.48, 8.42, 8.48, 8.64, 8.64, 8.77, 8.33, 7.97, 7.97, 7.97, 7.97, 7.97, 7.97, 7.97, 8.03, 8.03, 8.03, 8.03, 8.05, 7.6, 8.05, 8.05, 8.05, 8.05, 8.03, 8.03, 8.03, 8.03, 8.03, 8.03, 8.03, 7.58, 7.58, 7.6, 7.6, 7.6, 7.6, 7.58, 7.13, 7.13, 7.13, 7.13, 7.58, 7.13, 7.13, 7.13, 7.13, 7.13, 6.68, 6.68, 6.23, 6.23, 6.23, 6.26, 6.26, 6.23, 5.78, 5.24, 5.02, 4.0, 5.01, 3.07, 3.35, 4.84, 5.21, 5.82, 7.21, 8.63, 10.02, 11.66, 13.72, 15.84, 17.47, 16.44, 13.75, 10.87, 10.23, 9.9, 10.28, 10.63, 10.8, 11.62, 12.14, 12.14, 12.14]}, {"header": {"dx": 0.06612293990616946, "dy": 0.0552356325346848, "nx": 98, "ny": 59, "la1": 35.046912555036876, "la2": 31.78801023549047, "lo1": -121.43107172385933, "lo2": -114.95102361305473, "refTime": "2026041203", "parameterCategory": 1, "parameterNumber": 3}, "data": [-1.73, -1.63, -1.2, -1.12, -1.12, -1.14, -0.58, -0.53, 0.0, 0.0, 0.0, 0.57, 1.8, 1.8, 0.98, 0.79, 0.0, 0.0, 0.0, 1.14, 1.23, 1.1, 1.63, 1.63, 2.64, 3.9, 4.16, 4.56, 4.03, 3.79, 3.9, 3.11, 2.11, 0.7, 0.0, -2.2, -2.86, -2.54, -2.24, -1.26, 0.71, 2.6, 3.82, 4.8, 3.48, 3.9, 4.03, 5.3, 6.01, 7.02, 7.64, 6.95, 6.95, 6.95, 6.53, 6.14, 5.38, 4.83, 4.0, 3.8, 3.15, 2.31, 2.31, 1.58, 1.65, 1.65, 1.49, 2.31, 2.99, 3.7, 3.95, 3.85, 3.85, 2.97, 3.06, 2.47, 2.28, 1.39, 0.78, 0.0, 0.0, 0.0, -0.79, -1.6, -2.53, -2.79, -3.22, -2.53, -1.24, -0.71, 0.0, 0.0, 0.8, 2.24, 2.68, 2.6, 3.58, 3.51, -1.73, -1.63, -1.76, -1.12, -1.12, -1.14, -1.14, -0.53, -0.53, -0.53, 0.0, 0.88, 0.98, 0.87, 0.0, 0.0, 0.0, 0.0, 0.0, 0.88, 1.23, 1.32, 2.32, 3.76, 3.07, 3.22, 3.22, 3.11, 3.11, 4.01, 5.09, 5.82, 5.46, 2.84, 2.23, 0.89, -0.0, -0.95, -0.95, 0.0, 3.04, 5.7, 6.23, 3.79, 3.72, 3.79, 4.83, 5.59, 6.32, 7.02, 6.95, 6.95, 6.53, 6.23, 5.78, 5.38, 4.83, 4.6, 4.0, 3.32, 2.44, 2.44, 1.49, 1.55, 1.63, 1.55, 2.51, 3.69, 4.6, 5.52, 5.51, 4.68, 3.85, 3.02, 2.28, 1.52, 1.58, 1.39, 0.78, 0.0, 0.0, 0.0, -0.79, -1.6, -2.53, -2.79, -3.22, -2.53, -1.24, -0.71, 0.0, 0.0, 0.8, 2.24, 2.68, 2.6, 3.58, 3.51, -1.73, -1.63, -1.76, -1.65, -1.8, -1.14, -1.14, -1.05, -1.14, -0.59, 0.0, 0.66, 0.79, 0.79, 0.0, 0.0, 0.0, 0.0, 0.0, 0.0, 0.0, 1.14, 4.43, 5.93, 5.37, 4.65, 3.35, 1.49, 1.74, 3.45, 6.0, 7.47, 8.14, 6.61, 4.02, 3.04, 2.23, -0.0, -0.0, 2.68, 6.22, 6.79, 4.81, 4.29, 3.11, 3.33, 4.16, 4.95, 6.39, 6.32, 6.24, 6.14, 5.38, 5.64, 5.52, 4.6, 4.6, 4.0, 3.32, 3.15, 2.23, 1.58, 1.55, 1.52, 2.29, 3.11, 4.56, 5.49, 6.42, 6.45, 6.21, 5.4, 4.01, 3.02, 1.52, 0.0, 0.0, 0.78, 0.0, 0.0, -0.78, -1.55, -2.35, -2.53, -3.49, -4.22, -3.83, -3.22, -1.58, -0.57, 0.0, 0.0, 0.95, 1.79, 3.04, 3.95, 4.66, 4.66, -1.73, -1.63, -1.76, -1.65, -1.8, -1.67, -1.14, -1.14, -1.14, -1.16, 0.0, 0.59, 0.79, 0.0, 0.0, 0.0, 0.0, 0.0, 0.0, 0.0, 0.0, 2.73, 4.8, 5.15, 4.83, 5.69, 4.11, 2.23, 1.6, 4.02, 5.77, 7.56, 8.05, 7.6, 7.06, 5.7, 3.13, 1.2, 1.34, 4.47, 6.66, 6.28, 5.46, 4.74, 3.9, 3.47, 4.29, 4.65, 5.69, 5.89, 5.59, 5.76, 5.13, 5.38, 4.6, 4.6, 4.0, 3.15, 3.15, 2.44, 1.52, 1.65, 1.72, 2.2, 4.11, 5.77, 6.68, 7.61, 7.9, 8.49, 8.56, 7.01, 5.55, 3.47, 1.36, 0.0, -1.49, -1.6, -0.74, -1.49, -2.06, -2.51, -3.07, -2.8, -3.47, -3.95, -3.74, -2.8, -1.86, -0.8, 0.0, 0.0, 1.2, 2.24, 3.95, 5.16, 4.66, 4.73, -2.26, -2.26, -1.76, -1.65, -1.8, -1.67, -1.84, -1.67, -1.67, -1.16, 0.0, 0.0, 0.0, 0.0, 0.0, 0.0, 0.0, 0.0, 0.0, 0.0, 1.3, 4.46, 4.46, 1.98, 3.48, 5.01, 6.13, 5.4, 4.34, 4.92, 5.36, 5.81, 5.75, 4.47, 4.34, 4.4, 3.48, 2.23, 2.21, 4.47, 7.11, 7.35, 7.28, 7.06, 6.06, 5.43, 4.74, 4.74, 4.95, 5.59, 4.83, 5.49, 4.71, 5.49, 4.6, 4.6, 3.15, 3.15, 2.23, 1.52, 0.76, 0.82, 2.41, 4.22, 6.8, 8.05, 8.68, 8.68, 9.27, 9.8, 9.49, 7.93, 7.29, 6.09, 3.82, 0.71, -2.35, -3.0, -2.2, -2.23, -2.9, -3.07, -3.74, -3.13, -3.58, -3.58, -2.8, -1.24, -0.57, 0.0, 0.8, 1.26, 1.7, 2.68, 4.41, 5.31, 4.87, 4.85, -2.26, -2.26, -2.29, -2.14, -1.8, -1.67, -1.67, -1.67, -1.67, -1.07, 0.0, 0.0, 0.0, 0.0, 0.0, 0.0, 0.0, 0.0, 0.0, 0.81, 3.79, 4.19, 4.65, 4.65, 5.2, 5.81, 7.21, 7.4, 7.63, 6.79, 4.85, 4.02, 3.95, 3.13, 2.6, 3.58, 3.16, 1.7, 1.8, 4.02, 6.26, 7.52, 8.55, 8.67, 8.68, 7.97, 6.64, 4.65, 3.9, 4.95, 4.83, 5.59, 5.21, 4.96, 4.6, 3.7, 2.35, 1.67, 1.52, 0.77, 0.83, 1.6, 3.47, 6.55, 8.4, 9.6, 9.3, 9.04, 8.65, 8.76, 7.82, 7.0, 7.0, 6.35, 5.62, 3.11, 0.0, -1.49, -1.49, -1.47, -2.15, -2.8, -3.13, -3.07, -3.58, -3.07, -1.2, 0.0, 0.76, 0.57, 1.24, 1.9, 1.86, 2.6, 4.02, 4.92, 4.92, 5.31, -2.4, -2.26, -2.29, -2.32, -2.32, -2.16, -2.16, -2.32, -2.16, -1.19, -0.57, 0.0, 0.0, 0.0, 0.0, 0.0, 0.0, 0.0, 0.0, 1.49, 2.23, 1.58, 1.74, 3.58, 4.8, 5.2, 5.7, 6.23, 6.64, 5.6, 5.81, 4.47, 4.02, 4.02, 3.04, 3.2, 2.68, 2.6, 2.4, 4.38, 4.34, 6.26, 7.21, 7.07, 7.47, 7.59, 8.53, 6.14, 4.65, 5.69, 6.32, 5.59, 5.49, 4.6, 3.15, 2.23, 0.77, 0.0, 0.0, 0.0, 0.0, 3.9, 5.75, 7.89, 9.11, 9.6, 9.3, 7.9, 6.42, 5.51, 4.71, 4.04, 3.53, 2.43, 2.35, 2.33, 1.52, 0.0, 0.0, -0.65, -1.2, -2.4, -3.13, -4.47, -3.95, -1.24, 0.79, 2.3, 2.2, 1.6, 1.49, 1.9, 1.9, 2.8, 4.85, 4.92, 5.81, 5.81, -2.92, -2.96, -2.29, -2.32, -2.32, -2.32, -2.32, -2.32, -2.36, -1.73, -1.11, -0.59, 0.0, 0.0, 0.0, 0.0, 0.0, 0.0, 1.2, 1.9, 2.53, 1.58, 0.6, 0.89, 2.97, 3.82, 3.82, 4.24, 4.09, 4.8, 5.2, 5.36, 5.36, 4.47, 3.47, 2.6, 1.74, 1.83, 2.2, 3.35, 4.02, 3.13, 4.09, 5.01, 4.47, 5.72, 7.18, 7.82, 7.64, 7.81, 6.06, 5.3, 4.71, 3.15, 1.58, 0.8, 0.0, -0.76, -1.58, -1.6, 0.85, 5.81, 7.15, 8.82, 9.54, 8.63, 7.9, 6.2, 3.85, 2.34, 0.81, 0.0, 0.0, -0.76, -1.57, -0.69, 0.77, 1.54, 0.79, 0.0, -1.36, -1.88, -2.5, -3.45, -1.4, 0.7, 2.66, 2.4, 1.41, 1.66, 2.07, 1.9, 1.9, 2.8, 4.41, 5.81, 5.36, 5.81, -2.75, -2.96, -2.77, -2.32, -2.32, -2.32, -2.32, -2.8, -2.36, -1.73, -1.23, -0.59, 0.0, 0.0, 0.0, 0.0, 0.0, 0.79, 2.41, 2.23, 2.0, 2.0, 1.9, 0.89, 0.89, 2.8, 3.13, 2.8, 2.84, 3.72, 4.02, 4.47, 4.47, 4.02, 2.98, 0.99, 0.0, 0.0, 2.48, 3.35, 3.82, 2.97, 2.21, 1.98, 2.2, 3.55, 6.32, 9.3, 9.27, 9.27, 8.41, 5.59, 3.91, 2.26, 0.79, 0.0, 0.0, -1.52, -2.4, -1.49, 3.58, 8.49, 8.9, 9.26, 8.82, 7.41, 6.31, 4.75, 2.28, 0.0, -0.77, -2.1, -2.39, -2.81, -2.87, -2.44, -0.78, 0.0, 0.0, 0.0, -0.74, -2.2, -1.88, -0.76, 0.7, 2.73, 2.98, 2.4, 2.11, 2.0, 1.84, 1.9, 1.9, 2.5, 4.73, 5.81, 5.81, 6.26, -2.96, -2.77, -3.0, -2.8, -2.8, -2.8, -3.0, -3.0, -2.32, -2.4, -1.76, -1.11, -0.59, -0.59, 0.0, 0.0, 0.0, 0.99, 1.6, 2.8, 2.8, 2.8, 1.2, 0.8, 0.95, 1.26, 2.4, 2.68, 2.8, 3.2, 2.8, 2.68, 3.13, 2.8, 2.84, 1.27, 0.0, 1.9, 3.72, 3.79, 2.84, 2.41, 1.49, 1.49, 1.55, 3.11, 5.37, 6.39, 7.35, 7.9, 8.65, 8.38, 7.02, 5.77, 4.43, 4.11, 5.43, 3.48, 0.85, 2.0, 7.6, 10.7, 11.44, 9.83, 8.05, 5.3, 4.07, 3.6, 1.39, -0.79, -1.62, -2.06, -2.88, -3.47, -3.6, -3.53, -3.78, -3.15, -2.9, -2.0, 0.0, 1.49, 0.0, 1.33, 2.98, 3.43, 3.64, 3.11, 2.88, 2.2, 1.88, 1.88, 1.4, 2.5, 4.66, 5.81, 5.81, 6.26, -3.42, -2.77, -3.0, -3.0, -2.8, -3.0, -2.77, -3.0, -2.8, -2.36, -1.73, -1.11, -1.13, -1.13, -0.88, -0.88, 0.0, 0.0, 0.61, 0.65, 0.0, 0.0, 0.0, 0.0, 1.27, 0.95, 1.26, 1.58, 1.58, 0.0, 0.0, 0.0, 0.6, 1.98, 2.0, 3.79, 4.09, 4.09, 3.84, 3.22, 2.2, 1.8, 1.49, 2.32, 2.32, 4.11, 5.46, 4.81, 4.74, 6.44, 8.88, 11.62, 12.37, 12.58, 11.84, 12.49, 12.87, 10.01, 5.77, 6.28, 10.25, 11.96, 10.75, 9.49, 7.69, 6.95, 7.08, 7.08, 5.76, 3.9, 3.22, 1.52, 0.0, -2.18, -4.2, -5.18, -5.46, -5.49, -4.83, -2.21, 1.2, 3.32, 5.72, 4.43, 5.06, 5.72, 5.0, 4.29, 4.56, 3.38, 2.51, 1.88, 1.4, 2.15, 4.24, 5.81, 6.26, 6.26, -2.92, -3.21, -3.45, -3.0, -3.0, -3.0, -2.77, -2.77, -3.0, -2.82, -2.4, -1.76, -1.11, -1.11, -1.23, -1.08, -0.63, 0.0, 0.57, 0.59, 0.0, 0.0, 0.0, 0.0, 1.19, 1.19, 1.19, 1.16, 0.0, 0.0, 0.0, 0.0, 0.0, 0.87, 2.41, 3.84, 4.84, 3.84, 2.41, 2.53, 2.53, 1.49, 1.49, 2.32, 3.49, 4.8, 4.98, 5.4, 5.81, 6.36, 9.11, 11.4, 13.32, 15.12, 14.67, 14.67, 13.96, 10.53, 7.27, 7.47, 11.06, 11.66, 10.43, 8.4, 8.63, 10.87, 12.79, 13.64, 13.72, 12.56, 11.3, 9.21, 6.58, 1.6, -2.6, -4.65, -4.95, -4.65, -3.64, -0.71, 2.17, 3.74, 4.84, 6.44, 7.32, 7.59, 6.64, 5.64, 4.94, 4.22, 4.22, 2.8, 2.2, 2.21, 3.07, 5.36, 5.81, 6.71, -2.92, -3.42, -3.45, -3.45, -3.0, -3.0, -2.96, -2.96, -2.77, -2.8, -2.18, -1.76, -1.23, -1.76, -1.57, -1.19, -0.55, 0.0, 0.0, 0.0, 0.0, 0.0, 0.0, 0.0, 0.59, 0.58, 1.12, 1.14, 0.59, 0.0, 0.0, 0.0, 0.0, 0.87, 2.53, 3.2, 3.2, 3.22, 2.15, 1.49, 1.49, 1.33, 1.6, 1.49, 2.8, 3.13, 4.92, 6.61, 7.06, 7.06, 7.56, 8.49, 8.94, 9.39, 9.83, 9.54, 8.8, 8.75, 6.05, 7.47, 10.7, 11.18, 9.2, 8.3, 10.25, 13.29, 13.83, 15.13, 13.99, 13.43, 12.89, 11.49, 9.02, 5.63, 0.74, -1.66, -1.49, -0.76, 0.0, 2.98, 5.09, 3.16, 3.48, 3.07, 7.07, 7.02, 6.14, 5.04, 5.13, 4.8, 4.28, 3.6, 2.04, 1.4, 3.07, 5.36, 6.21, 7.15, -2.89, -3.42, -3.45, -3.45, -3.45, -3.21, -3.42, -3.42, -3.42, -3.0, -2.82, -1.73, -1.76, -1.08, -1.19, -1.19, -0.61, -0.55, 0.0, 0.0, 0.0, 0.0, 0.0, 0.0, 0.0, 0.0, 0.57, 0.57, 0.0, 0.0, -0.55, 0.0, 0.0, 0.8, 1.6, 2.12, 2.6, 3.2, 2.15, 1.6, 0.76, 1.49, 1.9, 4.8, 5.7, 6.26, 4.02, 3.58, 5.26, 5.7, 5.7, 5.81, 4.92, 4.47, 3.58, 1.9, 2.84, 4.44, 5.43, 7.6, 9.36, 10.6, 10.21, 10.7, 10.93, 10.75, 10.6, 10.32, 9.77, 8.31, 8.46, 8.95, 7.01, 3.91, 1.47, 0.0, 1.26, 4.19, 5.69, 6.14, 5.38, 4.71, 3.47, 3.47, 4.11, 4.03, 3.88, 4.71, 4.5, 4.2, 4.12, 2.75, 2.12, 2.68, 4.87, 6.26, 6.66, 7.6, -2.89, -3.4, -3.42, -3.45, -3.45, -3.42, -3.42, -3.42, -3.42, -3.21, -2.8, -2.18, -1.73, -1.19, -1.19, -1.19, -0.54, -0.61, 0.0, 0.0, 0.0, 0.0, 0.0, 0.0, 0.0, 0.0, 0.0, 0.0, 0.0, 0.0, -0.61, 0.0, 1.27, 2.84, 4.77, 5.7, 5.2, 2.86, 4.11, 1.49, 1.49, 4.46, 4.8, 5.2, 5.7, 5.7, 5.7, 5.2, 4.77, 4.24, 4.34, 4.34, 3.2, 1.58, 0.0, -1.58, -1.4, 0.0, 4.5, 8.0, 7.89, 8.17, 8.63, 9.21, 8.63, 8.22, 8.63, 7.2, 5.59, 5.31, 5.64, 5.3, 3.11, 0.0, 0.0, 2.76, 6.4, 7.35, 7.08, 6.97, 6.71, 5.95, 5.18, 3.61, 2.12, 1.55, 2.4, 3.06, 3.61, 3.21, 3.21, 2.12, 1.41, 2.79, 6.21, 7.12, 8.05, 8.05, -2.86, -3.37, -3.42, -3.68, -3.68, -3.42, -3.42, -3.64, -3.64, -3.42, -3.0, -2.36, -1.73, -1.73, -1.19, -1.07, -0.54, -0.54, 0.0, 0.0, 0.0, 0.0, 0.0, 0.0, 0.0, 0.0, 0.0, 0.0, 0.0, -0.59, -0.55, 0.0, 1.16, 3.72, 5.2, 3.95, 4.15, 3.22, 3.79, 4.09, 2.12, 3.2, 5.2, 5.81, 5.2, 5.2, 5.2, 5.2, 4.4, 3.72, 3.72, 1.58, 2.21, 1.0, 0.0, 0.0, 0.0, 1.41, 5.93, 7.07, 5.82, 5.93, 5.93, 5.93, 5.01, 5.59, 5.46, 6.13, 5.59, 4.46, 3.32, 0.71, -0.78, -1.54, 0.0, 5.46, 8.68, 8.76, 7.79, 8.05, 7.69, 6.9, 5.6, 4.68, 3.11, 1.65, 0.0, 0.72, 1.58, 2.35, 1.54, 0.76, 4.4, 7.01, 8.46, 7.6, 7.6, 7.6, -3.35, -3.56, -3.4, -3.84, -4.1, -3.84, -3.42, -3.64, -3.4, -3.64, -3.42, -2.8, -2.18, -1.73, -1.19, -1.07, -0.59, -0.59, 0.0, 0.0, 0.0, 0.54, 0.54, 0.0, 0.0, -0.58, -1.14, -1.14, -1.14, -1.07, -1.23, 0.0, 1.84, 4.8, 3.74, 3.74, 4.57, 4.09, 2.0, 4.09, 4.09, 3.2, 5.2, 3.2, 5.2, 5.2, 5.2, 4.09, 4.46, 3.79, 2.73, 2.73, 2.73, 2.4, 2.4, 2.4, 3.49, 4.02, 4.75, 5.69, 5.69, 4.75, 4.74, 3.76, 3.76, 4.54, 5.01, 5.6, 5.93, 4.66, 1.18, -1.48, -2.31, -0.78, 3.79, 8.32, 10.24, 9.49, 8.61, 7.82, 6.9, 6.4, 5.38, 4.24, 3.07, 2.35, 0.0, 0.0, 0.76, 0.0, 0.0, 1.41, 4.66, 7.57, 8.01, 7.6, 7.12, 7.12, -3.52, -3.35, -3.6, -4.08, -4.1, -3.84, -4.08, -4.08, -3.4, -3.4, -3.42, -2.77, -2.36, -1.7, -1.19, -1.07, -0.59, -0.54, 0.0, 0.0, 0.54, 0.0, 0.0, 0.0, -0.58, -1.16, -1.7, -1.7, -1.19, -1.23, -0.57, 0.0, 2.22, 4.07, 4.55, 4.22, 3.58, 3.16, 2.84, 2.84, 2.8, 1.6, 3.82, 2.4, 4.8, 4.8, 4.09, 4.09, 3.48, 2.4, 2.4, 2.4, 3.22, 3.49, 4.43, 4.74, 4.74, 4.74, 5.06, 4.75, 4.75, 4.75, 4.47, 4.02, 4.43, 4.22, 4.8, 5.2, 4.74, 3.52, 1.09, 0.78, 0.78, 2.34, 4.92, 6.05, 6.33, 6.47, 6.24, 5.35, 4.46, 3.78, 2.39, 1.42, 0.81, 0.84, 0.0, 0.0, 0.0, 0.0, 0.72, 2.07, 5.16, 7.12, 8.01, 7.12, 7.48, 7.48, -3.32, -3.52, -4.03, -4.08, -4.1, -4.1, -4.08, -4.08, -3.83, -3.4, -3.4, -2.96, -2.32, -1.84, -1.7, -0.82, -0.61, -0.61, 0.0, 0.0, 0.0, 0.0, 0.0, 0.0, 0.0, 0.0, -0.59, 0.0, 0.0, 0.0, 0.0, 1.73, 3.49, 4.71, 4.07, 3.43, 2.23, 1.8, 1.66, 1.41, 0.71, 1.0, 1.26, 3.72, 4.09, 4.09, 4.09, 2.73, 2.98, 2.4, 2.6, 2.6, 3.49, 5.01, 5.36, 5.06, 4.74, 5.06, 5.93, 4.75, 4.75, 4.47, 4.19, 2.15, 3.2, 4.66, 5.59, 4.84, 4.01, 3.35, 3.34, 4.66, 4.75, 3.9, 2.25, 0.0, 0.0, 0.0, 0.0, 0.79, 0.0, 0.0, 0.0, 0.0, 0.0, 0.0, 0.0, -0.63, -0.83, 0.0, 1.49, 4.11, 5.34, 6.22, 7.45, 6.98, 6.07, 6.07, -3.49, -4.0, -4.03, -4.05, -4.08, -4.1, -4.08, -4.08, -3.83, -3.4, -3.4, -2.75, -2.77, -2.32, -1.7, -1.16, -0.61, -0.61, 0.0, 0.0, 0.0, 0.0, 0.0, 0.0, 0.0, 0.81, 1.66, 1.23, 1.73, 1.88, 2.36, 3.04, 3.84, 4.12, 3.49, 2.86, 2.44, 1.73, 1.19, 1.19, 1.08, 1.23, 1.6, 2.53, 3.07, 3.72, 3.16, 2.73, 2.4, 2.4, 2.4, 4.11, 5.01, 5.75, 3.22, 3.49, 5.59, 3.79, 4.11, 4.47, 3.45, 3.76, 3.76, 4.65, 3.6, 3.47, 3.95, 4.84, 4.65, 4.0, 4.01, 3.91, 4.79, 2.43, -0.79, -4.61, -7.44, -7.93, -3.91, -2.41, -2.33, -2.25, -1.58, -1.6, -0.74, 0.0, 0.0, 0.0, 0.0, 0.7, 2.15, 4.46, 5.82, 5.64, 6.11, 5.86, 5.34, 5.34, -3.97, -3.97, -4.0, -4.05, -4.08, -4.47, -4.08, -4.08, -3.83, -4.05, -3.4, -3.4, -2.96, -2.14, -1.67, -1.7, -1.16, -0.54, -0.54, 0.0, 0.0, 0.0, 0.0, 0.54, 1.14, 1.67, 2.16, 2.16, 2.8, 2.8, 2.8, 3.47, 3.47, 3.49, 2.84, 2.86, 2.2, 1.88, 1.7, 1.16, 1.16, 1.16, 1.73, 2.48, 2.79, 3.72, 3.16, 2.73, 1.3, 1.3, 2.4, 4.65, 5.6, 5.37, 5.36, 3.22, 3.84, 3.79, 4.47, 3.76, 3.49, 4.11, 4.11, 4.65, 4.15, 3.74, 3.47, 4.4, 5.77, 5.49, 4.83, 5.48, 6.42, 3.09, -1.54, -7.01, -12.4, -11.76, -9.22, -6.4, -3.91, -3.14, -2.34, -0.69, 0.0, 0.0, 0.0, 0.67, 1.88, 2.07, 3.22, 4.84, 6.44, 5.69, 5.44, 5.44, 5.44, 5.44, -4.16, -3.97, -4.0, -4.05, -4.47, -4.75, -4.08, -4.08, -3.83, -4.05, -3.4, -3.4, -2.75, -2.29, -2.32, -1.67, -1.16, -1.16, -1.16, -0.53, 0.0, 0.0, 0.54, 0.59, 1.14, 1.67, 1.67, 2.16, 2.36, 2.82, 2.82, 2.82, 3.08, 3.08, 2.84, 2.4, 2.4, 1.7, 1.84, 1.67, 1.67, 1.67, 1.8, 1.84, 2.44, 2.51, 2.48, 1.41, 1.19, 2.4, 3.79, 4.65, 4.65, 5.01, 4.43, 5.36, 4.46, 5.46, 5.37, 2.98, 1.49, 2.6, 3.2, 4.15, 4.4, 4.4, 4.66, 4.15, 6.8, 7.76, 8.37, 10.02, 11.29, 7.93, -4.22, -8.06, -11.2, -12.39, -12.05, -9.8, -7.13, -4.17, -2.34, -0.73, 0.0, 0.0, 0.0, 1.27, 3.38, 2.98, 4.12, 5.09, 5.72, 5.72, 5.05, 4.93, 4.66, 4.66, -3.94, -3.94, -3.97, -4.03, -4.47, -4.75, -4.47, -4.08, -3.83, -4.05, -3.6, -3.4, -2.92, -2.75, -2.29, -1.8, -1.67, -1.14, -1.14, -0.53, 0.0, 0.0, 0.0, 0.0, 0.53, 1.14, 1.14, 1.7, 1.7, 2.18, 2.18, 2.4, 2.4, 2.4, 2.4, 2.4, 2.4, 1.7, 1.84, 1.67, 1.67, 1.8, 1.65, 1.76, 1.67, 2.44, 2.2, 1.41, 2.73, 2.98, 4.11, 4.11, 4.11, 4.11, 5.01, 5.01, 4.8, 5.46, 5.24, 2.53, 0.89, 2.68, 4.38, 5.09, 4.66, 4.4, 4.66, 4.24, 6.07, 6.7, 7.2, 8.54, 6.42, 5.14, 2.48, -3.2, -6.71, -8.4, -10.15, -10.81, -9.13, -6.77, -3.85, -2.23, -1.55, -1.52, 0.0, 2.15, 4.43, 5.69, 4.74, 5.37, 5.0, 4.74, 5.05, 4.52, 4.73, 4.73, -3.94, -3.94, -4.16, -4.2, -4.08, -4.47, -4.47, -4.08, -3.83, -4.05, -3.6, -3.4, -2.92, -2.75, -2.44, -2.29, -1.8, -1.67, -1.14, -1.14, -0.58, 0.0, 0.0, 0.0, 0.0, 0.53, 0.59, 1.16, 1.07, 1.73, 1.73, 1.73, 1.73, 2.2, 2.4, 2.4, 1.88, 1.7, 1.84, 1.84, 1.67, 1.67, 1.65, 1.76, 1.12, 1.7, 2.6, 2.4, 2.4, 3.49, 3.49, 2.6, 2.4, 3.79, 4.11, 5.6, 5.09, 5.43, 5.93, 3.93, 2.0, 2.24, 3.58, 4.57, 4.15, 4.57, 4.66, 6.36, 4.66, 4.6, 3.48, 1.11, 2.34, 5.38, 7.53, 4.28, 0.0, -5.06, -7.81, -9.57, -10.12, -8.49, -6.81, -5.7, -4.6, -1.41, 1.2, 3.83, 5.46, 7.69, 6.32, 6.32, 6.64, 5.69, 4.73, 4.4, 4.87, 4.87, -3.94, -3.94, -3.94, -3.97, -4.03, -4.05, -4.47, -4.08, -3.83, -4.05, -3.6, -3.6, -2.92, -2.92, -2.26, -2.29, -1.76, -1.65, -1.23, -1.14, -0.58, -0.58, 0.0, 0.0, 0.0, 0.0, 0.59, 0.59, 0.54, 1.19, 1.19, 1.19, 1.08, 1.57, 1.73, 1.73, 1.88, 1.7, 1.84, 1.84, 1.67, 1.14, 1.12, 1.12, 0.57, 1.14, 1.7, 2.4, 2.4, 2.36, 2.36, 2.32, 2.4, 2.98, 4.09, 4.8, 5.2, 3.83, 4.8, 6.13, 4.65, 3.2, 2.24, 3.47, 4.57, 4.15, 4.15, 4.8, 4.22, 1.83, 0.0, 0.0, 2.15, 6.26, 8.02, 9.51, 7.91, 1.5, -4.4, -9.3, -10.41, -10.45, -8.87, -7.55, -5.49, 0.0, 4.24, 5.86, 6.4, 8.93, 9.9, 9.21, 8.57, 6.95, 5.72, 4.4, 3.82, 3.82, -3.94, -3.94, -3.94, -3.97, -4.0, -4.05, -4.08, -4.08, -3.83, -4.05, -3.6, -3.37, -2.92, -2.92, -2.4, -2.26, -1.76, -1.76, -1.65, -1.12, -1.12, -0.58, 0.0, 0.0, 0.0, 0.0, 0.0, 0.0, 0.54, 0.61, 0.61, 0.55, 1.23, 1.11, 1.76, 1.76, 1.73, 1.7, 1.16, 1.14, 0.58, 0.58, 0.57, 0.57, 0.57, 1.14, 1.84, 2.36, 2.36, 2.36, 1.67, 1.16, 1.14, 2.98, 4.46, 4.46, 3.79, 4.09, 4.92, 5.2, 5.59, 5.01, 3.58, 3.74, 4.15, 3.74, 3.74, 3.74, 3.22, 1.6, 0.83, 1.16, 2.37, 6.24, 8.62, 11.28, 11.65, 7.82, 0.74, -7.35, -11.45, -11.3, -10.41, -8.24, -3.48, 2.4, 5.86, 6.79, 7.35, 8.93, 9.27, 10.19, 8.49, 7.15, 5.64, 3.49, 3.45, 3.45, -3.94, -3.94, -3.94, -3.94, -4.0, -4.03, -4.08, -4.08, -3.83, -3.6, -3.37, -3.37, -2.89, -2.73, -2.92, -2.4, -2.26, -1.63, -1.76, -1.2, -1.12, -0.57, -0.57, 0.0, 0.0, 0.0, 0.0, 0.0, 0.54, 0.54, 0.54, 0.54, 1.19, 1.76, 1.76, 1.23, 1.19, 0.59, 0.0, 0.0, 0.0, 0.0, 0.0, 0.0, 0.58, 1.67, 2.36, 2.36, 2.36, 1.67, 1.67, 1.7, 1.73, 2.22, 3.48, 3.48, 3.79, 4.66, 4.02, 4.02, 4.29, 4.74, 4.43, 4.22, 5.2, 4.57, 3.22, 2.4, 2.6, 2.47, 1.73, 0.8, 1.56, 3.82, 7.13, 9.17, 8.71, 6.44, 4.61, -1.88, -8.49, -10.32, -10.38, -8.25, -2.0, 2.63, 6.36, 7.47, 7.6, 8.05, 7.95, 7.85, 8.37, 7.24, 6.23, 4.29, 2.79, 2.79, -3.94, -3.94, -4.12, -3.94, -3.97, -4.03, -4.05, -4.08, -4.08, -3.6, -3.37, -3.37, -2.89, -2.89, -2.73, -2.23, -2.26, -1.73, -1.63, -1.1, -1.1, -0.61, -0.57, 0.0, 0.0, 0.0, 0.0, 0.0, 0.59, 0.53, 0.58, 1.14, 2.18, 2.4, 1.73, 1.19, 0.59, 0.0, 0.0, 0.0, 0.53, 1.14, 1.67, 2.32, 3.04, 3.22, 2.8, 2.32, 2.16, 1.67, 1.84, 2.4, 2.4, 3.12, 3.48, 3.79, 3.79, 4.66, 4.02, 3.58, 3.22, 4.11, 4.81, 4.84, 4.22, 4.65, 2.4, 0.81, 1.55, 1.6, 1.55, 0.0, 0.0, 0.0, 0.79, 1.51, 1.57, 2.3, 3.16, 1.52, -1.88, -7.37, -8.91, -7.56, -1.49, 4.66, 8.48, 8.0, 8.05, 7.41, 7.02, 6.79, 7.79, 7.19, 6.29, 4.8, 3.38, 3.38, -3.94, -3.94, -4.12, -4.12, -3.94, -4.0, -3.81, -4.08, -4.08, -4.08, -3.37, -3.37, -2.89, -2.89, -2.89, -2.23, -2.23, -1.73, -1.73, -1.18, -1.1, -1.1, -0.61, -0.61, -0.56, -0.58, 0.0, 0.0, 0.53, 0.58, 1.23, 2.32, 2.32, 2.36, 1.7, 1.16, 0.59, 0.59, 1.16, 1.67, 2.8, 3.0, 3.45, 4.16, 3.9, 3.72, 3.04, 2.36, 2.36, 1.84, 2.36, 3.08, 3.49, 3.49, 3.49, 3.2, 4.11, 4.46, 3.9, 3.04, 2.84, 3.48, 4.84, 4.6, 3.58, 3.47, 3.33, 1.55, 0.0, 0.0, 0.0, 0.77, 0.0, -2.4, -4.71, -5.55, -3.79, -0.79, 1.54, 3.12, 1.5, -1.74, -4.63, -4.92, 0.69, 5.94, 7.95, 7.41, 6.95, 6.88, 6.88, 6.57, 6.44, 6.87, 6.44, 5.39, 3.47, 3.47, -3.94, -3.94, -4.12, -4.12, -3.94, -3.97, -4.03, -4.05, -4.08, -4.08, -4.05, -3.37, -2.89, -2.89, -2.89, -2.37, -2.23, -1.71, -1.73, -1.18, -1.18, -1.18, -1.18, -1.18, -1.16, -1.16, 0.0, 0.0, 0.58, 1.14, 1.8, 2.32, 2.32, 2.32, 1.8, 1.67, 1.67, 2.16, 2.8, 3.45, 4.1, 4.1, 4.1, 4.1, 4.1, 4.16, 3.11, 2.82, 2.82, 3.47, 3.72, 3.45, 3.47, 3.47, 3.49, 3.22, 3.15, 3.43, 3.58, 3.2, 3.22, 4.22, 4.6, 2.6, 2.41, 4.01, 4.95, 5.06, 0.99, -0.99, 0.0, 3.27, 4.01, 0.76, -4.13, -8.56, -7.71, -4.81, -1.53, 0.76, 1.57, 0.62, 0.0, 0.0, 4.24, 6.44, 7.09, 6.36, 6.36, 6.62, 6.62, 6.09, 6.44, 6.31, 6.44, 5.54, 5.13, 5.13, -3.94, -3.94, -3.45, -3.42, -4.12, -3.94, -3.52, -3.81, -3.83, -4.08, -3.83, -3.6, -2.89, -2.89, -2.89, -2.37, -2.37, -1.71, -1.71, -1.61, -1.18, -1.61, -1.71, -1.71, -1.71, -1.09, 0.0, 0.0, 0.57, 0.58, 1.14, 1.67, 2.32, 2.32, 2.32, 2.8, 2.8, 3.45, 3.85, 3.85, 4.1, 4.1, 3.68, 3.68, 3.45, 3.2, 3.2, 3.0, 3.45, 3.45, 3.45, 3.0, 3.0, 3.47, 2.82, 2.84, 2.86, 3.16, 3.43, 3.58, 3.58, 4.15, 3.2, 1.49, 1.4, 3.07, 4.81, 5.93, 4.74, 2.23, 1.98, 4.01, 5.63, 6.17, 3.16, -3.87, -8.66, -8.29, -5.38, -3.18, -0.7, 0.73, 2.4, 4.63, 6.06, 7.24, 7.03, 7.03, 6.21, 5.86, 5.62, 5.09, 4.8, 5.77, 5.89, 5.77, 5.46, 5.46, -3.45, -3.45, -3.45, -3.42, -3.42, -3.45, -3.49, -3.52, -3.6, -4.08, -3.83, -3.6, -3.37, -2.89, -2.71, -2.21, -2.37, -1.71, -1.71, -1.71, -1.71, -1.81, -2.37, -2.23, -1.71, -0.59, 0.0, 0.0, 0.0, 0.58, 1.14, 1.84, 2.16, 2.8, 3.0, 3.0, 3.45, 3.45, 3.45, 3.45, 3.0, 3.0, 3.0, 3.0, 3.0, 2.77, 2.77, 2.96, 2.77, 2.77, 2.29, 2.29, 2.32, 2.16, 2.18, 2.84, 2.86, 2.86, 3.16, 3.43, 4.22, 3.83, 1.49, 1.49, 0.71, 2.84, 3.6, 3.79, 4.75, 4.75, 3.63, 2.76, 3.6, 4.43, 6.31, 3.18, -3.07, -6.82, -6.32, -4.24, -1.42, 1.39, 3.58, 5.54, 5.98, 6.66, 7.16, 7.24, 5.4, 4.96, 4.37, 4.37, 4.8, 5.7, 5.77, 5.54, 5.62, 5.62, -3.45, -3.45, -3.45, -3.61, -3.42, -3.42, -3.45, -3.49, -3.35, -3.6, -4.08, -3.83, -3.37, -3.37, -2.71, -2.21, -2.21, -1.69, -1.81, -1.69, -1.69, -2.33, -2.33, -2.37, -1.18, -0.56, 0.0, 0.0, 0.0, 0.83, 1.67, 2.16, 2.32, 2.8, 3.0, 3.0, 3.0, 2.8, 2.32, 2.32, 2.32, 2.8, 2.8, 2.8, 2.49, 2.29, 2.29, 2.29, 2.29, 1.76, 1.76, 1.76, 1.8, 1.84, 2.4, 2.44, 2.86, 2.86, 2.86, 3.78, 4.0, 3.58, 3.79, 1.49, 2.21, 2.23, 1.26, 2.84, 2.6, 3.91, 4.16, 1.6, 0.0, 0.0, 1.53, 4.87, 3.96, 0.0, -2.15, -3.6, -1.44, 0.7, 2.85, 4.31, 5.34, 5.49, 6.02, 6.1, 4.68, 3.9, 5.06, 5.06, 5.21, 5.52, 5.62, 6.2, 5.62, 5.62, -3.49, -3.49, -3.45, -3.45, -3.42, -3.42, -3.45, -3.3, -3.32, -3.37, -3.4, -3.83, -3.6, -3.37, -2.86, -2.21, -2.33, -1.69, -1.69, -1.69, -1.67, -1.75, -1.67, -1.14, -0.55, 0.0, 0.0, 0.0, 0.0, 1.1, 2.29, 2.29, 2.29, 2.29, 2.14, 2.32, 2.32, 2.32, 2.32, 2.16, 2.16, 2.32, 2.32, 2.32, 2.32, 2.32, 2.29, 1.76, 1.65, 1.12, 1.12, 1.12, 1.14, 1.7, 2.44, 2.86, 2.86, 3.49, 3.2, 3.48, 4.65, 4.46, 3.79, 4.65, 3.22, 3.22, 2.53, 3.16, 2.4, 3.68, 4.56, 3.4, 0.0, 0.0, -0.77, 2.33, 6.54, 5.65, 1.41, -2.1, -3.6, -2.1, 0.0, 2.06, 2.76, 4.13, 4.24, 4.68, 4.37, 3.48, 3.49, 4.95, 4.94, 4.8, 4.96, 5.54, 5.54, 5.54, -3.49, -3.49, -3.45, -3.45, -3.42, -3.42, -3.42, -3.45, -3.49, -3.52, -3.37, -3.4, -3.4, -3.6, -2.89, -2.33, -2.33, -1.78, -1.69, -1.78, -1.75, -1.65, -1.18, -0.57, 0.0, 0.0, 0.0, 0.0, 0.59, 1.63, 2.29, 2.29, 2.29, 2.29, 2.29, 2.14, 2.32, 2.32, 2.32, 2.32, 2.16, 2.16, 2.32, 2.32, 2.32, 1.8, 1.8, 1.65, 1.12, 0.57, 0.57, 0.57, 0.58, 1.19, 2.22, 3.15, 3.49, 3.49, 3.49, 3.79, 3.78, 4.65, 3.79, 4.65, 4.65, 5.01, 2.84, 1.74, 2.53, 3.9, 4.22, 4.44, 3.45, 1.58, 0.0, 1.53, 5.61, 7.11, 6.22, 2.36, -2.1, -3.61, -2.12, 0.0, 0.71, 2.42, 3.65, 3.55, 3.16, 3.48, 3.16, 3.48, 3.91, 3.51, 3.44, 3.53, 5.0, 5.0, -3.49, -3.49, -3.45, -3.45, -3.61, -3.42, -3.42, -3.45, -3.3, -3.49, -3.01, -3.37, -3.4, -2.92, -2.92, -2.89, -2.33, -2.33, -1.78, -1.67, -1.75, -1.11, -0.56, 0.0, 0.0, 0.0, 0.0, 0.0, 1.09, 2.26, 2.26, 2.26, 2.26, 2.12, 2.29, 2.29, 2.14, 2.32, 2.32, 2.32, 2.32, 2.16, 2.32, 2.32, 1.8, 1.8, 1.8, 1.12, 0.61, 0.0, 0.0, 0.0, 0.58, 1.19, 1.76, 2.86, 3.49, 3.49, 3.49, 3.49, 3.79, 3.73, 4.11, 3.58, 2.84, 3.76, 1.4, 1.74, 2.68, 3.35, 4.47, 5.59, 5.64, 4.55, 2.25, 1.48, 3.04, 5.41, 6.22, 5.18, 2.9, 0.0, -1.41, -1.49, 0.0, 1.16, 2.15, 2.51, 3.16, 3.15, 2.73, 2.48, 3.2, 2.99, 2.69, 2.76, 3.61, 3.61, -3.97, -3.97, -3.97, -3.94, -3.45, -3.42, -3.42, -3.42, -3.45, -3.49, -2.83, -2.86, -2.33, -2.89, -2.92, -2.92, -2.89, -2.21, -2.33, -1.67, -1.75, -1.11, -0.56, 0.0, 0.0, 0.0, 0.0, 0.54, 1.71, 2.26, 2.26, 2.26, 1.73, 1.73, 1.73, 1.76, 2.29, 2.14, 2.14, 2.32, 2.32, 2.32, 2.16, 2.35, 1.67, 1.8, 1.12, 0.57, 0.56, 0.0, 0.57, 0.58, 1.14, 1.16, 2.4, 2.84, 3.12, 3.49, 3.49, 3.49, 3.79, 4.07, 3.79, 3.22, 1.49, 3.49, 1.74, 2.21, 2.21, 3.79, 5.15, 6.06, 6.98, 7.66, 6.17, 2.37, 0.78, 0.76, 0.8, 2.93, 5.1, 4.95, 1.39, -0.76, 0.0, 0.65, 2.0, 2.07, 2.0, 2.2, 2.0, 1.8, 1.55, 1.65, 1.52, 1.39, 0.71, 2.1, -3.97, -3.97, -3.97, -3.94, -3.94, -3.61, -3.42, -3.42, -3.45, -3.3, -2.97, -2.97, -2.3, -2.33, -2.37, -2.73, -2.92, -2.89, -2.21, -2.33, -1.67, -1.18, -0.59, 0.0, 0.0, 0.0, 0.0, 1.14, 1.71, 2.23, 1.71, 1.73, 1.73, 1.73, 1.73, 1.73, 1.76, 2.29, 2.14, 2.14, 2.32, 1.8, 2.36, 2.35, 1.8, 1.76, 0.57, 0.57, 0.61, 1.12, 1.12, 1.8, 2.32, 2.32, 2.32, 2.82, 3.08, 2.84, 3.49, 3.49, 4.07, 4.07, 5.01, 2.21, 2.53, 3.79, 4.65, 4.19, 3.16, 5.21, 6.28, 6.8, 6.64, 7.13, 8.62, 7.2, 2.25, -1.54, -3.52, -1.43, 1.44, 3.58, 3.47, 1.39, 0.72, 1.47, 2.2, 2.2, 1.35, 1.47, 0.66, 0.66, 0.66, 0.79, 0.0, 0.0, -0.7, 0.71, -3.97, -3.97, -3.97, -4.16, -3.94, -3.45, -3.42, -3.42, -3.45, -3.45, -2.8, -2.8, -2.3, -2.3, -2.19, -2.33, -2.37, -2.23, -2.37, -2.37, -2.33, -1.78, -1.12, -0.56, 0.0, 0.0, 0.57, 1.14, 1.71, 1.71, 1.71, 1.71, 1.61, 1.73, 1.73, 1.73, 1.73, 1.76, 1.76, 1.65, 1.65, 1.8, 1.67, 1.67, 1.73, 1.76, 1.12, 0.57, 1.12, 1.65, 2.29, 2.77, 2.77, 2.77, 3.0, 2.8, 3.04, 3.12, 3.49, 3.48, 3.79, 3.79, 3.48, 3.79, 3.79, 4.11, 3.84, 4.19, 4.84, 5.82, 6.28, 5.43, 5.93, 6.98, 9.66, 11.28, 9.63, 4.71, -0.73, -3.69, -1.88, 0.0, 1.41, 2.93, 2.17, 2.18, 2.12, 0.76, 0.7, 0.0, 0.0, 0.0, 0.0, 0.0, -0.78, -1.5, -2.1, -0.7, -3.97, -3.97, -3.97, -3.97, -4.16, -3.94, -3.61, -3.42, -3.27, -2.93, -2.93, -2.8, -2.3, -2.3, -1.75, -1.75, -1.75, -1.67, -1.69, -2.37, -2.21, -1.69, -1.14, -1.14, -0.56, 0.0, 0.57, 1.16, 1.16, 1.16, 1.71, 1.71, 1.71, 1.73, 1.73, 1.73, 1.73, 1.73, 1.76, 1.76, 1.65, 1.8, 1.67, 1.14, 0.57, 0.79, 1.2, 1.12, 1.65, 2.29, 2.29, 2.29, 2.29, 2.29, 2.29, 2.32, 2.32, 2.84, 2.86, 3.15, 3.15, 3.15, 4.11, 3.79, 3.79, 3.79, 3.48, 4.11, 4.8, 5.75, 5.75, 4.46, 3.76, 5.03, 6.71, 10.19, 13.27, 14.19, 9.43, 0.79, -1.79, -2.07, -1.36, 0.71, 1.43, 1.44, 0.69, 0.0, 0.0, -0.66, -0.66, -0.66, -1.35, -2.35, -3.02, -3.02, -3.02, -3.02, -3.49, -3.49, -3.97, -3.97, -3.97, -3.94, -3.45, -3.45, -3.45, -2.93, -2.8, -2.28, -2.17, -1.65, -1.65, -1.65, -1.16, -1.16, -1.11, -1.67, -1.69, -1.69, -1.14, -1.14, -0.57, 0.0, 0.58, 1.16, 1.16, 1.14, 1.14, 1.71, 1.71, 1.71, 1.73, 1.73, 1.73, 1.73, 1.73, 1.63, 1.76, 1.12, 1.12, 0.57, 0.0, 0.59, 1.18, 1.1, 1.76, 1.76, 1.65, 1.65, 1.65, 1.65, 1.8, 1.8, 2.36, 2.4, 2.86, 2.86, 2.86, 2.48, 2.48, 2.4, 2.98, 3.79, 4.11, 4.65, 4.8, 3.74, 3.84, 3.48, 2.6, 3.11, 4.71, 6.71, 9.54, 12.32, 15.47, 12.08, 6.48, 1.43, 0.0, 0.0, 0.0, 0.0, 0.0, -1.27, -1.84, -1.84, -2.0, -2.88, -3.55, -4.6, -4.8, -3.88, -3.88, -3.88, -3.45, -3.45, -3.49, -3.49, -3.97, -3.49, -3.45, -3.45, -2.93, -2.8, -2.28, -2.28, -1.65, -1.65, -1.65, -1.65, -1.16, -1.16, -1.16, -1.11, -1.18, -1.12, -1.12, -1.12, -0.57, 0.0, 0.55, 0.58, 0.58, 1.14, 1.14, 1.14, 1.71, 1.71, 1.71, 1.71, 1.61, 1.73, 1.73, 1.18, 1.1, 1.1, 0.56, 0.56, 0.0, 0.56, 0.56, 1.1, 1.2, 1.2, 1.12, 1.12, 1.12, 1.8, 1.8, 1.67, 1.67, 2.36, 2.4, 2.44, 2.48, 2.22, 2.22, 2.4, 2.98, 2.98, 4.11, 4.65, 4.22, 3.22, 2.68, 2.68, 2.4, 3.11, 4.16, 4.71, 6.21, 8.74, 12.08, 15.96, 16.23, 13.3, 8.71, 4.95, 2.15, 0.69, -0.66, -3.14, -3.45, -3.49, -3.43, -4.71, -5.3, -5.52, -4.83, -3.79, -3.79, -3.79, -3.45, -3.45, -3.45, -3.49, -3.49, -3.49, -3.49, -2.8, -2.8, -2.8, -2.28, -2.28, -2.17, -1.65, -1.65, -1.65, -1.73, -1.73, -1.16, -1.16, -0.56, -0.56, -0.56, -0.56, 0.0, 0.58, 0.55, 0.58, 0.58, 0.57, 1.14, 1.14, 1.71, 1.71, 1.71, 1.71, 1.71, 1.09, 1.18, 1.18, 1.18, 0.59, 0.59, 0.59, 0.56, 0.56, 0.56, 1.1, 1.1, 1.1, 1.12, 1.12, 1.23, 1.23, 1.14, 1.67, 1.67, 1.84, 1.7, 2.2, 2.44, 2.44, 2.44, 1.76, 2.6, 2.98, 3.79, 3.48, 3.48, 3.16, 2.73, 2.68, 3.35, 4.01, 4.29, 4.03, 4.07, 5.38, 8.51, 11.8, 15.0, 16.75, 15.16, 11.85, 8.51, 6.2, 2.17, -3.39, -4.92, -4.73, -6.87, -6.06, -5.37, -4.95, -3.35, -2.15, -2.15, -2.15, -3.45, -3.45, -3.45, -3.49, -3.49, -3.49, -3.49, -2.97, -2.97, -2.8, -2.28, -2.28, -2.3, -2.3, -2.3, -1.65, -1.65, -1.65, -1.73, -1.73, -1.16, -1.16, -1.16, -0.59, 0.0, 0.58, 1.16, 0.58, 0.54, 0.57, 1.14, 1.14, 1.16, 1.16, 1.16, 1.16, 1.16, 1.16, 1.16, 1.09, 0.55, 0.55, 0.55, 0.59, 0.59, 0.56, 0.56, 0.56, 0.56, 1.1, 1.12, 1.12, 1.12, 1.23, 1.14, 1.14, 1.14, 1.84, 1.7, 1.88, 2.44, 2.44, 2.44, 2.2, 2.44, 2.4, 2.73, 2.68, 2.68, 2.68, 2.95, 4.19, 4.19, 4.11, 3.47, 3.0, 3.15, 3.85, 6.43, 9.49, 11.91, 14.08, 14.62, 13.54, 12.4, 10.14, 6.6, -3.2, -6.51, -7.97, -5.93, -3.83, -2.8, -2.23, -1.58, -1.24, -1.24, -1.24, -3.45, -3.45, -3.45, -3.49, -3.49, -3.49, -3.49, -3.49, -2.97, -2.97, -2.97, -2.3, -2.3, -2.3, -2.3, -2.3, -1.75, -1.65, -1.65, -1.73, -1.16, -1.16, -1.16, -0.56, 0.0, 1.16, 1.16, 0.58, 0.57, 0.57, 0.57, 1.14, 1.07, 1.16, 1.16, 1.16, 1.16, 1.16, 1.16, 0.58, 0.58, 0.58, 0.55, 0.55, 1.18, 0.59, 0.59, 0.59, 1.18, 1.1, 1.2, 1.12, 1.12, 1.12, 1.14, 1.14, 1.14, 1.26, 1.7, 1.7, 1.73, 1.73, 2.2, 2.2, 2.44, 2.4, 2.48, 3.16, 4.09, 3.93, 4.22, 4.6, 3.79, 3.22, 2.47, 2.64, 3.09, 4.2, 6.2, 7.36, 9.49, 11.16, 13.45, 14.56, 13.49, 10.95, 7.84, 0.0, -4.46, -1.86, -1.26, -1.7, -1.34, -1.2, -0.6, 0.0, 0.0, 0.0, -3.45, -3.45, -3.45, -3.49, -3.49, -3.49, -3.32, -3.32, -3.32, -2.83, -2.83, -2.83, -2.83, -2.3, -2.3, -2.3, -2.3, -1.75, -1.65, -1.65, -1.65, -1.73, -1.16, 0.0, 0.57, 1.16, 0.58, 0.54, 0.57, 0.57, 0.57, 0.57, 0.57, 1.07, 1.16, 1.16, 1.16, 0.54, 0.54, 0.54, 0.58, 0.58, 0.55, 0.55, 0.55, 0.55, 0.55, 0.59, 1.18, 1.1, 1.2, 1.12, 1.12, 1.12, 1.23, 1.14, 1.14, 1.14, 1.16, 1.7, 1.73, 1.73, 1.73, 1.94, 2.22, 2.4, 2.73, 3.16, 4.09, 2.68, 2.68, 3.48, 3.35, 3.22, 3.22, 3.9, 4.16, 4.71, 6.14, 6.42, 6.87, 9.42, 13.27, 15.17, 14.31, 11.4, 7.13, 1.4, 0.0, 0.8, 1.0, 0.6, 0.0, 0.63, 0.95, 1.58, 1.58, 1.58, -3.45, -3.45, -3.45, -3.3, -3.49, -3.49, -3.52, -3.52, -3.32, -3.32, -2.83, -2.83, -2.83, -2.83, -2.3, -2.3, -2.3, -2.3, -1.75, -1.75, -1.65, -1.73, -1.11, 0.0, 0.57, 0.58, 0.58, 0.0, 0.0, 0.57, 0.57, 0.57, 0.57, 0.54, 0.54, 0.54, 0.57, 0.57, 0.57, 0.0, 0.58, 0.58, 0.55, 0.55, 0.55, 0.55, 0.55, 1.09, 1.18, 1.1, 1.1, 1.2, 1.2, 1.12, 1.12, 1.14, 1.14, 1.14, 1.26, 1.16, 1.16, 1.73, 1.73, 1.73, 1.76, 1.83, 2.68, 2.68, 2.41, 1.8, 1.8, 2.84, 3.48, 4.11, 4.43, 4.74, 4.65, 4.95, 5.89, 6.14, 6.2, 7.01, 10.21, 13.15, 12.76, 9.85, 3.47, 2.4, 3.32, 4.3, 4.75, 2.53, 2.5, 2.6, 2.91, 2.68, 2.68, 2.68, -3.45, -3.45, -3.45, -3.45, -3.49, -3.49, -3.52, -3.52, -3.52, -3.52, -2.83, -2.83, -2.83, -2.83, -2.83, -2.3, -2.3, -2.3, -2.3, -1.75, -1.65, -1.73, -1.11, 0.0, 0.54, 0.58, 0.0, 0.0, 0.0, 0.0, 0.57, 0.57, 0.57, 0.57, 0.57, 0.57, 0.0, 0.0, 0.0, 0.0, 0.0, 0.0, 0.55, 0.58, 0.58, 0.58, 0.58, 1.09, 1.18, 1.18, 1.1, 1.1, 0.56, 1.12, 1.12, 1.23, 1.23, 1.14, 1.14, 1.16, 1.16, 1.16, 1.19, 1.73, 1.76, 1.83, 2.3, 2.53, 2.53, 2.68, 3.58, 3.22, 2.53, 3.48, 4.54, 4.81, 5.06, 5.77, 5.59, 5.38, 5.52, 5.63, 7.01, 8.0, 8.18, 2.92, 4.12, 4.73, 5.6, 5.78, 5.95, 6.08, 5.09, 4.4, 3.07, 2.79, 2.79, 2.79, -3.45, -3.45, -3.45, -3.45, -3.3, -3.49, -3.32, -3.52, -3.52, -3.52, -3.52, -2.83, -2.83, -2.83, -2.83, -2.83, -2.3, -2.3, -2.3, -2.3, -1.65, -1.73, -0.59, 0.0, 0.54, 0.0, 0.0, 0.0, 0.0, 0.0, 0.57, 0.57, 0.57, 0.57, 0.0, 0.0, 0.0, 0.0, 0.0, 0.0, 0.0, 0.0, 0.0, 0.58, 0.58, 0.58, 1.16, 1.09, 1.18, 1.18, 0.59, 0.56, 0.56, 1.2, 1.12, 1.12, 1.12, 1.23, 1.14, 1.16, 1.16, 1.16, 1.19, 1.08, 1.19, 1.76, 1.66, 1.66, 2.53, 4.22, 4.6, 4.19, 2.84, 2.98, 3.58, 4.54, 5.15, 5.06, 4.56, 4.34, 4.71, 4.92, 4.87, 4.81, 2.3, 2.08, 3.13, 5.06, 5.69, 6.26, 7.2, 7.32, 5.82, 5.43, 4.19, 2.84, 2.84, 2.84, -3.45, -3.45, -3.45, -3.45, -3.3, -3.49, -3.32, -3.52, -3.52, -3.52, -3.01, -2.83, -2.83, -2.83, -2.83, -2.3, -2.3, -2.3, -2.3, -2.3, -2.17, -2.28, -0.56, 0.0, 0.0, 0.0, 0.0, 0.0, 0.0, 0.0, 0.0, 0.0, 0.0, 0.0, 0.0, 0.0, 0.0, 0.0, 0.0, 0.0, 0.0, 0.0, 0.58, 0.58, 0.58, 1.16, 1.16, 1.16, 1.09, 1.18, 0.59, 0.59, 0.59, 1.1, 1.12, 1.12, 1.12, 1.12, 1.14, 1.14, 1.16, 1.16, 1.16, 0.61, 1.19, 1.19, 0.81, 1.55, 3.07, 4.6, 4.6, 4.19, 4.19, 4.57, 3.6, 4.6, 5.21, 4.58, 4.03, 3.27, 4.0, 4.71, 3.91, 3.22, 3.06, 2.11, 1.79, 4.43, 5.2, 6.67, 8.06, 8.55, 6.7, 5.09, 4.81, 3.79, 3.79, 3.79, -3.45, -3.45, -3.45, -3.45, -3.3, -3.49, -3.32, -3.52, -3.01, -2.83, -2.83, -2.83, -2.83, -2.83, -2.83, -2.3, -2.3, -2.3, -2.3, -2.3, -2.3, -2.3, 0.0, 0.0, 0.0, 0.0, 0.0, 0.0, 0.0, 0.0, 0.0, 0.0, 0.0, 0.0, 0.0, 0.0, 0.0, 0.0, 0.0, 0.0, 0.0, 0.58, 0.58, 1.16, 1.16, 1.16, 1.16, 1.16, 1.09, 0.55, 0.55, 0.55, 0.59, 1.1, 1.2, 1.12, 1.12, 1.12, 1.12, 1.14, 1.14, 0.58, 0.59, 0.54, 0.61, 1.19, 0.59, 1.88, 2.53, 3.48, 3.93, 4.22, 4.6, 4.8, 4.57, 4.22, 4.54, 5.06, 4.03, 4.26, 3.91, 3.88, 4.58, 4.85, 6.83, 4.23, -0.0, 2.88, 6.13, 8.05, 9.4, 9.78, 8.03, 6.39, 5.37, 4.65, 4.65, 4.65, -3.45, -3.45, -3.45, -3.45, -3.3, -3.49, -3.32, -3.52, -3.52, -2.83, -2.83, -2.83, -2.83, -2.83, -2.83, -2.3, -2.3, -2.3, -2.3, -2.3, -2.3, -1.67, -0.57, 0.0, 0.0, 0.0, 0.0, 0.0, 0.0, 0.0, 0.0, 0.0, 0.0, 0.0, 0.0, 0.0, 0.0, 0.0, 0.0, 0.57, 0.54, 0.58, 1.16, 1.16, 1.16, 1.16, 1.16, 1.16, 0.58, 0.55, 0.55, 0.55, 0.59, 0.56, 1.1, 1.2, 0.61, 0.57, 1.12, 1.14, 0.58, 0.58, 0.58, 0.59, 0.54, 0.54, 0.59, 1.16, 1.7, 2.53, 3.16, 3.58, 3.58, 4.22, 4.22, 3.58, 4.19, 4.74, 4.56, 4.83, 3.91, 4.2, 4.66, 6.36, 9.42, 8.75, -0.89, -0.0, 6.25, 8.94, 10.1, 10.35, 9.27, 7.59, 5.76, 4.22, 4.22, 4.22, -3.94, -3.94, -3.45, -3.45, -3.3, -3.49, -3.32, -3.52, -3.52, -2.83, -2.83, -2.83, -2.83, -2.83, -2.83, -2.3, -2.3, -2.3, -2.3, -2.83, -2.3, -1.14, 0.0, 0.0, 0.0, 0.0, 0.0, 0.0, 0.0, 0.0, 0.0, 0.0, 0.0, 0.0, 0.0, 0.0, 0.0, 0.57, 0.57, 0.57, 1.07, 1.16, 1.16, 0.58, 0.58, 0.58, 0.58, 0.58, 0.58, 0.58, 0.58, 0.58, 0.59, 0.59, 0.56, 0.56, 0.56, 0.61, 0.57, 0.57, 0.57, 0.57, 0.58, 0.58, 0.59, 0.59, 0.59, 1.26, 1.16, 2.2, 2.68, 3.16, 3.58, 3.93, 3.48, 2.84, 2.84, 3.35, 3.9, 4.03, 3.91, 3.95, 3.87, 5.51, 7.25, 9.59, 2.14, -0.63, 5.05, 8.49, 9.6, 9.82, 9.83, 7.63, 6.05, 4.83, 4.83, 4.83, -3.94, -3.94, -3.45, -3.45, -3.3, -3.49, -3.32, -3.52, -3.52, -3.52, -2.83, -2.83, -2.83, -2.83, -2.83, -2.3, -2.3, -2.3, -2.83, -2.83, -1.67, -0.57, 0.0, 0.0, 0.0, 0.0, 0.0, 0.0, 0.0, 0.0, 0.0, 0.0, 0.0, 0.0, 0.0, 0.0, 0.57, 0.57, 1.14, 1.14, 1.14, 1.16, 0.58, 0.58, 0.58, 0.58, 0.58, 0.58, 0.58, 0.58, 0.58, 0.55, 0.55, 0.59, 0.59, 0.56, 0.56, 0.56, 0.57, 0.57, 0.57, 0.57, 0.57, 0.58, 1.05, 0.59, 0.58, 0.58, 1.14, 1.7, 1.66, 2.41, 3.58, 3.58, 3.48, 3.48, 2.41, 2.53, 3.47, 4.16, 3.32, 2.49, 1.54, 2.37, 3.18, 4.27, 4.68, 2.83, 6.35, 8.48, 7.85, 8.58, 8.44, 7.79, 6.45, 5.63, 5.63, 5.63, -3.94, -3.94, -3.94, -3.45, -3.3, -3.49, -3.32, -3.52, -3.52, -3.52, -2.83, -2.83, -2.83, -2.83, -2.83, -2.3, -2.3, -2.83, -2.97, -2.3, -1.2, -0.57, 0.0, 0.0, -0.57, -0.57, -0.56, -0.56, -0.56, -0.56, -0.56, 0.0, 0.0, 0.0, 0.0, 0.57, 0.57, 0.57, 1.14, 1.14, 0.57, 0.54, 0.54, 0.58, 0.58, 0.58, 0.58, 0.0, 0.0, 0.0, 0.0, 0.55, 0.55, 0.59, 0.59, 0.59, 0.56, 0.56, 0.56, 0.61, 0.57, 0.57, 0.57, 1.14, 1.14, 1.14, 0.58, 0.62, 0.58, 0.76, 1.66, 2.41, 3.16, 3.16, 3.48, 4.19, 3.79, 3.16, 3.35, 3.09, 2.35, 1.56, 0.8, 0.0, 0.0, 0.0, 2.49, 6.44, 9.13, 8.59, 7.33, 6.98, 7.09, 7.25, 6.77, 5.51, 5.51, 5.51, -3.94, -3.94, -3.94, -3.45, -3.3, -3.49, -3.32, -3.52, -3.35, -3.52, -3.01, -2.83, -2.83, -2.83, -2.83, -2.83, -2.3, -2.42, -2.28, -1.75, -1.14, -0.54, 0.0, -0.54, -0.57, -0.57, -0.56, -0.56, -0.56, -0.56, 0.0, 0.0, 0.0, 0.0, 0.57, 0.57, 0.57, 0.57, 0.57, 0.57, 0.57, 0.57, 0.54, 0.54, 0.58, 0.0, 0.0, 0.0, 0.0, 0.0, 0.0, 0.55, 0.55, 0.55, 0.55, 0.59, 0.59, 0.59, 0.56, 0.56, 0.56, 0.61, 0.57, 1.12, 1.14, 0.58, 0.58, 0.57, 0.57, 0.58, 1.19, 1.66, 2.68, 3.16, 3.48, 4.19, 4.11, 3.35, 1.6, 1.65, 1.6, 0.76, 0.78, 0.0, 0.0, 0.0, 3.13, 6.6, 8.38, 7.85, 6.58, 5.86, 6.11, 6.21, 6.1, 5.67, 5.67, 5.67, -3.94, -3.94, -3.94, -3.94, -3.49, -3.49, -3.32, -3.52, -3.35, -3.52, -3.01, -2.83, -2.83, -2.83, -2.83, -2.83, -2.3, -2.28, -2.17, -1.67, -1.14, -0.58, -0.54, -1.14, -1.14, -1.14, -0.61, -0.56, -0.61, -0.57, 0.0, 0.0, 0.0, 0.0, 0.0, 0.57, 0.57, 0.57, 0.57, 0.57, 0.57, 0.57, 0.57, 0.54, 0.58, 0.0, 0.0, 0.0, 0.0, 0.0, 0.0, 0.55, 0.55, 0.55, 0.55, 0.55, 0.55, 0.55, 0.59, 0.59, 0.56, 0.61, 0.57, 1.12, 0.58, 0.58, 0.57, 0.57, 0.57, 0.58, 1.16, 1.7, 2.53, 4.11, 3.48, 4.19, 4.11, 3.22, 2.47, 1.65, 1.6, 1.58, 1.61, 1.59, 1.55, 2.4, 3.96, 5.45, 6.21, 6.62, 5.7, 5.46, 5.62, 5.68, 5.63, 4.95, 4.95, 4.95, -4.16, -4.16, -3.94, -3.94, -3.49, -3.49, -3.32, -3.52, -3.35, -3.52, -3.52, -3.32, -3.32, -2.83, -3.01, -2.83, -2.3, -2.3, -1.75, -1.67, -1.14, -1.14, -1.14, -1.14, -1.14, -1.14, -1.14, -0.57, -0.57, -0.57, -0.57, 0.0, 0.0, 0.0, 0.0, 0.0, 0.0, 0.57, 0.57, 0.57, 0.57, 0.57, 0.57, 0.57, 0.54, 0.54, 0.0, 0.0, 0.0, 0.0, 0.58, 0.55, 0.55, 0.55, 0.55, 0.58, 0.55, 0.55, 0.55, 0.59, 0.59, 0.56, 0.61, 0.57, 0.57, 0.57, 0.0, 0.0, 0.57, 0.58, 1.16, 1.88, 2.86, 3.76, 3.84, 4.19, 3.35, 3.47, 3.33, 2.4, 2.35, 2.25, 2.31, 3.04, 3.2, 4.85, 5.51, 5.55, 5.51, 6.2, 6.2, 5.41, 5.54, 5.1, 4.94, 4.61, 4.61, 4.61, -4.16, -4.16, -3.94, -3.94, -3.49, -3.49, -3.32, -3.52, -3.35, -3.52, -3.52, -3.32, -3.32, -2.83, -3.01, -2.83, -2.3, -2.3, -1.75, -1.67, -1.14, -1.14, -1.14, -1.14, -1.14, -1.14, -1.14, -0.57, -0.57, -0.57, -0.57, 0.0, 0.0, 0.0, 0.0, 0.0, 0.0, 0.57, 0.57, 0.57, 0.57, 0.57, 0.57, 0.57, 0.54, 0.54, 0.0, 0.0, 0.0, 0.0, 0.58, 0.55, 0.55, 0.55, 0.55, 0.58, 0.55, 0.55, 0.55, 0.59, 0.59, 0.56, 0.61, 0.57, 0.57, 0.57, 0.0, 0.0, 0.57, 0.58, 1.16, 1.88, 2.86, 3.76, 3.84, 4.19, 3.22, 3.47, 3.33, 2.4, 2.35, 2.31, 3.11, 4.04, 4.75, 5.56, 7.04, 6.47, 6.21, 5.51, 6.09, 6.33, 5.72, 5.4, 4.65, 4.55, 4.55, 4.55]}]